Time,TemperatureF,DewpointF,PressureIn,WindDirection,WindDirectionDegrees,WindSpeedMPH,WindSpeedGustMPH,Humidity,HourlyPrecipIn,Conditions,Clouds,dailyrainin,SoftwareType,DateUTC
2013-03-08 00:01:00,19.8,12.8,30.30,East,80,2.0,2.0,74,0.00,,,0.00,Wunderground v.1.13,2013-03-08 06:01:00,
2013-03-08 00:02:00,19.8,12.8,30.30,East,80,2.0,2.0,74,0.00,,,0.00,Wunderground v.1.13,2013-03-08 06:02:00,
2013-03-08 00:07:00,19.8,14.9,30.30,East,80,2.0,2.0,81,0.00,,,0.00,Wunderground v.1.13,2013-03-08 06:07:00,
2013-03-08 00:08:00,19.8,12.8,30.30,East,80,2.0,2.0,74,0.00,,,0.00,Wunderground v.1.13,2013-03-08 06:08:00,
2013-03-08 00:09:00,19.9,12.9,30.30,East,80,2.0,2.0,74,0.00,,,0.00,Wunderground v.1.13,2013-03-08 06:09:00,
2013-03-08 00:14:00,19.9,12.9,30.30,East,80,2.0,2.0,74,0.00,,,0.00,Wunderground v.1.13,2013-03-08 06:14:00,
2013-03-08 00:15:00,19.9,12.9,30.30,East,80,2.0,2.0,74,0.00,,,0.00,Wunderground v.1.13,2013-03-08 06:15:00,
2013-03-08 00:16:00,19.9,12.9,30.30,East,80,2.0,2.0,74,0.00,,,0.00,Wunderground v.1.13,2013-03-08 06:16:00,
2013-03-08 00:21:00,19.8,12.8,30.30,East,80,2.0,2.0,74,0.00,,,0.00,Wunderground v.1.13,2013-03-08 06:21:00,
2013-03-08 00:22:00,19.8,12.8,30.30,East,80,2.0,2.0,74,0.00,,,0.00,Wunderground v.1.13,2013-03-08 06:22:00,
2013-03-08 00:24:00,19.8,12.8,30.30,East,80,1.0,2.0,74,0.00,,,0.00,Wunderground v.1.13,2013-03-08 06:24:00,
2013-03-08 00:27:00,19.7,12.8,30.30,East,80,2.0,3.0,74,0.00,,,0.00,Wunderground v.1.13,2013-03-08 06:27:00,
2013-03-08 00:30:00,19.4,12.5,30.30,East,80,2.0,2.0,74,0.00,,,0.00,Wunderground v.1.13,2013-03-08 06:30:00,
2013-03-08 00:31:00,19.4,12.5,30.30,East,80,2.0,2.0,74,0.00,,,0.00,Wunderground v.1.13,2013-03-08 06:31:00,
2013-03-08 00:37:00,19.1,12.5,30.30,East,80,2.0,2.0,75,0.00,,,0.00,Wunderground v.1.13,2013-03-08 06:37:00,
2013-03-08 00:38:00,19.2,12.6,30.30,East,80,2.0,2.0,75,0.00,,,0.00,Wunderground v.1.13,2013-03-08 06:38:00,
2013-03-08 00:39:00,19.1,12.5,30.30,East,80,2.0,2.0,75,0.00,,,0.00,Wunderground v.1.13,2013-03-08 06:39:00,
2013-03-08 00:43:00,19.2,12.6,30.30,East,80,2.0,2.0,75,0.00,,,0.00,Wunderground v.1.13,2013-03-08 06:43:00,
2013-03-08 00:44:00,19.2,12.6,30.30,East,80,2.0,2.0,75,0.00,,,0.00,Wunderground v.1.13,2013-03-08 06:44:00,
2013-03-08 00:45:00,19.2,12.6,30.30,East,80,2.0,2.0,75,0.00,,,0.00,Wunderground v.1.13,2013-03-08 06:45:00,
2013-03-08 00:50:00,19.3,12.7,30.30,East,80,1.0,1.0,75,0.00,,,0.00,Wunderground v.1.13,2013-03-08 06:50:00,
2013-03-08 00:52:00,19.3,12.7,30.30,East,80,1.0,1.0,75,0.00,,,0.00,Wunderground v.1.13,2013-03-08 06:52:00,
2013-03-08 00:54:00,19.3,12.7,30.30,East,80,1.0,1.0,75,0.00,,,0.00,Wunderground v.1.13,2013-03-08 06:54:00,
2013-03-08 01:00:00,19.2,12.6,30.29,East,80,1.0,1.0,75,0.00,,,0.00,Wunderground v.1.13,2013-03-08 07:00:00,
2013-03-08 01:02:00,19.1,12.5,30.30,East,80,1.0,2.0,75,0.00,,,0.00,Wunderground v.1.13,2013-03-08 07:02:00,
2013-03-08 01:07:00,18.7,12.1,30.30,East,80,1.0,2.0,75,0.00,,,0.00,Wunderground v.1.13,2013-03-08 07:07:00,
2013-03-08 01:09:00,18.6,12.0,30.30,East,80,1.0,2.0,75,0.00,,,0.00,Wunderground v.1.13,2013-03-08 07:09:00,
2013-03-08 01:12:00,18.5,12.2,30.30,East,80,1.0,1.0,76,0.00,,,0.00,Wunderground v.1.13,2013-03-08 07:12:00,
2013-03-08 01:14:00,18.4,12.1,30.30,East,80,1.0,1.0,76,0.00,,,0.00,Wunderground v.1.13,2013-03-08 07:14:00,
2013-03-08 01:16:00,18.5,12.5,30.30,East,80,1.0,1.0,77,0.00,,,0.00,Wunderground v.1.13,2013-03-08 07:16:00,
2013-03-08 01:19:00,18.4,12.4,30.30,East,80,1.0,1.0,77,0.00,,,0.00,Wunderground v.1.13,2013-03-08 07:19:00,
2013-03-08 01:20:00,18.4,12.4,30.30,East,80,1.0,1.0,77,0.00,,,0.00,Wunderground v.1.13,2013-03-08 07:20:00,
2013-03-08 01:22:00,18.4,12.4,30.30,East,80,0.0,1.0,77,0.00,,,0.00,Wunderground v.1.13,2013-03-08 07:22:00,
2013-03-08 01:24:00,18.4,12.4,30.31,East,80,0.0,1.0,77,0.00,,,0.00,Wunderground v.1.13,2013-03-08 07:24:00,
2013-03-08 01:26:00,18.4,12.4,30.31,East,80,0.0,0.0,77,0.00,,,0.00,Wunderground v.1.13,2013-03-08 07:26:00,
2013-03-08 01:29:00,18.3,12.3,30.31,East,80,0.0,1.0,77,0.00,,,0.00,Wunderground v.1.13,2013-03-08 07:29:00,
2013-03-08 01:30:00,18.4,12.4,30.31,East,80,0.0,0.0,77,0.00,,,0.00,Wunderground v.1.13,2013-03-08 07:30:00,
2013-03-08 01:31:00,18.4,12.4,30.31,East,80,0.0,0.0,77,0.00,,,0.00,Wunderground v.1.13,2013-03-08 07:31:00,
2013-03-08 01:34:00,18.3,12.3,30.31,East,80,0.0,0.0,77,0.00,,,0.00,Wunderground v.1.13,2013-03-08 07:34:00,
2013-03-08 01:35:00,18.3,12.3,30.31,East,80,0.0,0.0,77,0.00,,,0.00,Wunderground v.1.13,2013-03-08 07:35:00,
2013-03-08 01:38:00,18.2,12.2,30.31,East,80,0.0,0.0,77,0.00,,,0.00,Wunderground v.1.13,2013-03-08 07:38:00,
2013-03-08 01:40:00,18.1,12.1,30.31,East,80,0.0,0.0,77,0.00,,,0.00,Wunderground v.1.13,2013-03-08 07:40:00,
2013-03-08 01:41:00,18.0,12.0,30.31,East,80,0.0,0.0,77,0.00,,,0.00,Wunderground v.1.13,2013-03-08 07:41:00,
2013-03-08 01:43:00,17.9,11.9,30.31,East,80,0.0,0.0,77,0.00,,,0.00,Wunderground v.1.13,2013-03-08 07:43:00,
2013-03-08 01:48:00,17.6,11.6,30.31,East,80,0.0,0.0,77,0.00,,,0.00,Wunderground v.1.13,2013-03-08 07:48:00,
2013-03-08 01:52:00,17.2,11.2,30.31,East,80,0.0,0.0,77,0.00,,,0.00,Wunderground v.1.13,2013-03-08 07:52:00,
2013-03-08 01:53:00,17.1,11.1,30.31,East,80,0.0,0.0,77,0.00,,,0.00,Wunderground v.1.13,2013-03-08 07:53:00,
2013-03-08 01:54:00,17.1,11.4,30.31,East,80,0.0,0.0,78,0.00,,,0.00,Wunderground v.1.13,2013-03-08 07:54:00,
2013-03-08 02:00:00,16.6,10.9,30.31,East,80,0.0,0.0,78,0.00,,,0.00,Wunderground v.1.13,2013-03-08 08:00:00,
2013-03-08 02:02:00,16.6,10.9,30.31,East,80,0.0,0.0,78,0.00,,,0.00,Wunderground v.1.13,2013-03-08 08:02:00,
2013-03-08 02:05:00,16.4,11.0,30.31,East,80,0.0,0.0,79,0.00,,,0.00,Wunderground v.1.13,2013-03-08 08:05:00,
2013-03-08 02:10:00,16.4,11.0,30.31,East,80,0.0,0.0,79,0.00,,,0.00,Wunderground v.1.13,2013-03-08 08:10:00,
2013-03-08 02:11:00,16.4,11.3,30.31,East,80,0.0,0.0,80,0.00,,,0.00,Wunderground v.1.13,2013-03-08 08:11:00,
2013-03-08 02:16:00,16.4,11.3,30.30,East,80,0.0,0.0,80,0.00,,,0.00,Wunderground v.1.13,2013-03-08 08:16:00,
2013-03-08 02:18:00,16.3,11.2,30.30,East,80,0.0,0.0,80,0.00,,,0.00,Wunderground v.1.13,2013-03-08 08:18:00,
2013-03-08 02:19:00,16.3,11.2,30.30,East,80,0.0,0.0,80,0.00,,,0.00,Wunderground v.1.13,2013-03-08 08:19:00,
2013-03-08 02:24:00,15.5,10.1,30.30,East,80,0.0,0.0,79,0.00,,,0.00,Wunderground v.1.13,2013-03-08 08:24:00,
2013-03-08 02:26:00,15.2,9.9,30.30,East,80,0.0,0.0,79,0.00,,,0.00,Wunderground v.1.13,2013-03-08 08:26:00,
2013-03-08 02:29:00,15.1,10.0,30.30,East,80,0.0,0.0,80,0.00,,,0.00,Wunderground v.1.13,2013-03-08 08:29:00,
2013-03-08 02:32:00,15.1,10.3,30.30,East,80,0.0,1.0,81,0.00,,,0.00,Wunderground v.1.13,2013-03-08 08:32:00,
2013-03-08 02:33:00,15.0,10.2,30.30,East,80,0.0,1.0,81,0.00,,,0.00,Wunderground v.1.13,2013-03-08 08:33:00,
2013-03-08 02:38:00,14.9,10.1,30.30,East,80,0.0,0.0,81,0.00,,,0.00,Wunderground v.1.13,2013-03-08 08:38:00,
2013-03-08 02:40:00,14.9,10.1,30.30,East,80,0.0,0.0,81,0.00,,,0.00,Wunderground v.1.13,2013-03-08 08:40:00,
2013-03-08 02:43:00,14.9,10.4,30.30,East,80,0.0,0.0,82,0.00,,,0.00,Wunderground v.1.13,2013-03-08 08:43:00,
2013-03-08 02:45:00,15.0,10.5,30.30,East,80,0.0,0.0,82,0.00,,,0.00,Wunderground v.1.13,2013-03-08 08:45:00,
2013-03-08 02:51:00,15.0,10.5,30.30,East,80,1.0,1.0,82,0.00,,,0.00,Wunderground v.1.13,2013-03-08 08:51:00,
2013-03-08 02:53:00,15.0,10.5,30.29,East,80,1.0,1.0,82,0.00,,,0.00,Wunderground v.1.13,2013-03-08 08:53:00,
2013-03-08 02:55:00,15.1,10.6,30.30,East,80,1.0,1.0,82,0.00,,,0.00,Wunderground v.1.13,2013-03-08 08:55:00,
2013-03-08 02:59:00,15.3,11.1,30.29,East,80,1.0,1.0,83,0.00,,,0.00,Wunderground v.1.13,2013-03-08 08:59:00,
2013-03-08 03:01:00,15.4,11.2,30.29,East,80,1.0,1.0,83,0.00,,,0.00,Wunderground v.1.13,2013-03-08 09:01:00,
2013-03-08 03:04:00,15.6,11.4,30.30,East,80,1.0,1.0,83,0.00,,,0.00,Wunderground v.1.13,2013-03-08 09:04:00,
2013-03-08 03:05:00,15.7,11.5,30.30,East,80,1.0,1.0,83,0.00,,,0.00,Wunderground v.1.13,2013-03-08 09:05:00,
2013-03-08 03:07:00,15.7,11.5,30.30,East,80,0.0,1.0,83,0.00,,,0.00,Wunderground v.1.13,2013-03-08 09:07:00,
2013-03-08 03:10:00,15.8,11.6,30.30,East,80,0.0,1.0,83,0.00,,,0.00,Wunderground v.1.13,2013-03-08 09:10:00,
2013-03-08 03:12:00,15.9,11.7,30.30,East,80,0.0,1.0,83,0.00,,,0.00,Wunderground v.1.13,2013-03-08 09:12:00,
2013-03-08 03:15:00,16.0,11.7,30.30,East,80,1.0,1.0,83,0.00,,,0.00,Wunderground v.1.13,2013-03-08 09:15:00,
2013-03-08 03:17:00,16.1,11.8,30.29,East,80,1.0,1.0,83,0.00,,,0.00,Wunderground v.1.13,2013-03-08 09:17:00,
2013-03-08 03:20:00,16.0,11.7,30.29,East,80,1.0,1.0,83,0.00,,,0.00,Wunderground v.1.13,2013-03-08 09:20:00,
2013-03-08 03:24:00,15.7,11.2,30.29,East,80,0.0,1.0,82,0.00,,,0.00,Wunderground v.1.13,2013-03-08 09:24:00,
2013-03-08 03:26:00,15.7,11.2,30.29,East,80,0.0,0.0,82,0.00,,,0.00,Wunderground v.1.13,2013-03-08 09:26:00,
2013-03-08 03:29:00,15.6,11.4,30.29,East,80,0.0,0.0,83,0.00,,,0.00,Wunderground v.1.13,2013-03-08 09:29:00,
2013-03-08 03:30:00,15.5,11.3,30.29,East,80,0.0,0.0,83,0.00,,,0.00,Wunderground v.1.13,2013-03-08 09:30:00,
2013-03-08 03:32:00,15.5,11.3,30.29,East,80,0.0,0.0,83,0.00,,,0.00,Wunderground v.1.13,2013-03-08 09:32:00,
2013-03-08 03:34:00,15.4,11.2,30.29,East,80,0.0,0.0,83,0.00,,,0.00,Wunderground v.1.13,2013-03-08 09:34:00,
2013-03-08 03:36:00,15.3,11.1,30.29,East,80,0.0,0.0,83,0.00,,,0.00,Wunderground v.1.13,2013-03-08 09:36:00,
2013-03-08 03:37:00,15.2,11.0,30.29,East,80,0.0,0.0,83,0.00,,,0.00,Wunderground v.1.13,2013-03-08 09:37:00,
2013-03-08 03:40:00,15.2,11.0,30.29,East,80,0.0,0.0,83,0.00,,,0.00,Wunderground v.1.13,2013-03-08 09:40:00,
2013-03-08 03:43:00,15.2,11.0,30.29,East,80,0.0,0.0,83,0.00,,,0.00,Wunderground v.1.13,2013-03-08 09:43:00,
2013-03-08 03:47:00,15.3,11.1,30.29,East,80,0.0,1.0,83,0.00,,,0.00,Wunderground v.1.13,2013-03-08 09:47:00,
2013-03-08 03:49:00,15.3,11.1,30.29,East,80,0.0,1.0,83,0.00,,,0.00,Wunderground v.1.13,2013-03-08 09:49:00,
2013-03-08 03:51:00,15.3,11.1,30.29,East,80,0.0,0.0,83,0.00,,,0.00,Wunderground v.1.13,2013-03-08 09:51:00,
2013-03-08 03:54:00,15.3,11.3,30.29,East,80,0.0,0.0,84,0.00,,,0.00,Wunderground v.1.13,2013-03-08 09:54:00,
2013-03-08 03:55:00,15.3,11.3,30.29,East,80,0.0,0.0,84,0.00,,,0.00,Wunderground v.1.13,2013-03-08 09:55:00,
2013-03-08 03:58:00,15.2,11.2,30.29,East,80,0.0,0.0,84,0.00,,,0.00,Wunderground v.1.13,2013-03-08 09:58:00,
2013-03-08 04:00:00,15.2,11.0,30.29,East,80,0.0,0.0,83,0.00,,,0.00,Wunderground v.1.13,2013-03-08 10:00:00,
2013-03-08 04:01:00,15.1,11.1,30.29,East,80,0.0,0.0,84,0.00,,,0.00,Wunderground v.1.13,2013-03-08 10:01:00,
2013-03-08 04:03:00,14.9,10.7,30.29,East,80,0.0,1.0,83,0.00,,,0.00,Wunderground v.1.13,2013-03-08 10:03:00,
2013-03-08 04:04:00,14.9,10.9,30.29,East,80,0.0,1.0,84,0.00,,,0.00,Wunderground v.1.13,2013-03-08 10:04:00,
2013-03-08 04:09:00,14.7,10.5,30.29,East,80,1.0,1.0,83,0.00,,,0.00,Wunderground v.1.13,2013-03-08 10:09:00,
2013-03-08 04:10:00,14.6,10.4,30.30,East,80,1.0,1.0,83,0.00,,,0.00,Wunderground v.1.13,2013-03-08 10:10:00,
2013-03-08 04:11:00,14.5,10.5,30.30,East,80,1.0,1.0,84,0.00,,,0.00,Wunderground v.1.13,2013-03-08 10:11:00,
2013-03-08 04:13:00,14.4,10.4,30.30,East,80,1.0,1.0,84,0.00,,,0.00,Wunderground v.1.13,2013-03-08 10:13:00,
2013-03-08 04:15:00,14.3,10.4,30.30,East,80,1.0,1.0,84,0.00,,,0.00,Wunderground v.1.13,2013-03-08 10:15:00,
2013-03-08 04:17:00,14.2,10.3,30.30,East,80,0.0,1.0,84,0.00,,,0.00,Wunderground v.1.13,2013-03-08 10:17:00,
2013-03-08 04:19:00,14.2,10.3,30.30,East,80,0.0,1.0,84,0.00,,,0.00,Wunderground v.1.13,2013-03-08 10:19:00,
2013-03-08 04:21:00,14.1,10.2,30.29,East,80,0.0,1.0,84,0.00,,,0.00,Wunderground v.1.13,2013-03-08 10:21:00,
2013-03-08 04:23:00,14.0,10.1,30.29,East,80,0.0,1.0,84,0.00,,,0.00,Wunderground v.1.13,2013-03-08 10:23:00,
2013-03-08 04:27:00,13.8,9.9,30.29,East,80,1.0,1.0,84,0.00,,,0.00,Wunderground v.1.13,2013-03-08 10:27:00,
2013-03-08 04:28:00,13.7,9.8,30.29,East,80,1.0,1.0,84,0.00,,,0.00,Wunderground v.1.13,2013-03-08 10:28:00,
2013-03-08 04:29:00,13.7,9.8,30.29,East,80,1.0,1.0,84,0.00,,,0.00,Wunderground v.1.13,2013-03-08 10:29:00,
2013-03-08 04:33:00,13.8,10.1,30.29,East,80,1.0,1.0,85,0.00,,,0.00,Wunderground v.1.13,2013-03-08 10:33:00,
2013-03-08 04:34:00,13.8,10.1,30.29,East,80,1.0,1.0,85,0.00,,,0.00,Wunderground v.1.13,2013-03-08 10:34:00,
2013-03-08 04:35:00,13.8,10.1,30.29,East,80,1.0,1.0,85,0.00,,,0.00,Wunderground v.1.13,2013-03-08 10:35:00,
2013-03-08 04:36:00,13.8,10.1,30.29,East,80,0.0,1.0,85,0.00,,,0.00,Wunderground v.1.13,2013-03-08 10:36:00,
2013-03-08 04:39:00,13.8,10.1,30.29,East,80,0.0,1.0,85,0.00,,,0.00,Wunderground v.1.13,2013-03-08 10:39:00,
2013-03-08 04:40:00,13.9,10.2,30.29,East,80,0.0,0.0,85,0.00,,,0.00,Wunderground v.1.13,2013-03-08 10:40:00,
2013-03-08 04:41:00,13.8,10.1,30.29,East,80,0.0,0.0,85,0.00,,,0.00,Wunderground v.1.13,2013-03-08 10:41:00,
2013-03-08 04:44:00,13.9,10.2,30.29,East,80,0.0,0.0,85,0.00,,,0.00,Wunderground v.1.13,2013-03-08 10:44:00,
2013-03-08 04:47:00,13.9,10.5,30.29,East,80,0.0,0.0,86,0.00,,,0.00,Wunderground v.1.13,2013-03-08 10:47:00,
2013-03-08 04:48:00,13.9,10.5,30.29,East,80,0.0,0.0,86,0.00,,,0.00,Wunderground v.1.13,2013-03-08 10:48:00,
2013-03-08 04:50:00,14.0,10.6,30.29,East,80,0.0,0.0,86,0.00,,,0.00,Wunderground v.1.13,2013-03-08 10:50:00,
2013-03-08 04:53:00,14.0,10.6,30.29,East,80,0.0,0.0,86,0.00,,,0.00,Wunderground v.1.13,2013-03-08 10:53:00,
2013-03-08 04:54:00,14.1,10.7,30.29,East,80,0.0,0.0,86,0.00,,,0.00,Wunderground v.1.13,2013-03-08 10:54:00,
2013-03-08 04:56:00,14.1,10.7,30.29,East,80,0.0,0.0,86,0.00,,,0.00,Wunderground v.1.13,2013-03-08 10:56:00,
2013-03-08 04:58:00,14.1,10.7,30.29,East,80,0.0,0.0,86,0.00,,,0.00,Wunderground v.1.13,2013-03-08 10:58:00,
2013-03-08 05:00:00,14.2,10.8,30.29,East,80,0.0,0.0,86,0.00,,,0.00,Wunderground v.1.13,2013-03-08 11:00:00,
2013-03-08 05:04:00,14.2,10.8,30.30,East,80,0.0,0.0,86,0.00,,,0.00,Wunderground v.1.13,2013-03-08 11:04:00,
2013-03-08 05:05:00,14.2,10.8,30.30,East,80,0.0,0.0,86,0.00,,,0.00,Wunderground v.1.13,2013-03-08 11:05:00,
2013-03-08 05:06:00,14.2,10.8,30.29,East,80,0.0,0.0,86,0.00,,,0.00,Wunderground v.1.13,2013-03-08 11:06:00,
2013-03-08 05:10:00,14.3,10.9,30.30,East,80,0.0,1.0,86,0.00,,,0.00,Wunderground v.1.13,2013-03-08 11:10:00,
2013-03-08 05:11:00,14.4,11.2,30.30,East,80,0.0,1.0,87,0.00,,,0.00,Wunderground v.1.13,2013-03-08 11:11:00,
2013-03-08 05:16:00,14.6,11.4,30.30,East,80,0.0,0.0,87,0.00,,,0.00,Wunderground v.1.13,2013-03-08 11:16:00,
2013-03-08 05:17:00,14.7,11.5,30.30,East,80,0.0,0.0,87,0.00,,,0.00,Wunderground v.1.13,2013-03-08 11:17:00,
2013-03-08 05:18:00,14.7,11.5,30.30,East,80,0.0,0.0,87,0.00,,,0.00,Wunderground v.1.13,2013-03-08 11:18:00,
2013-03-08 05:23:00,14.7,11.5,30.30,East,80,0.0,0.0,87,0.00,,,0.00,Wunderground v.1.13,2013-03-08 11:23:00,
2013-03-08 05:24:00,14.7,11.5,30.30,East,80,0.0,0.0,87,0.00,,,0.00,Wunderground v.1.13,2013-03-08 11:24:00,
2013-03-08 05:25:00,14.7,11.5,30.30,East,80,0.0,0.0,87,0.00,,,0.00,Wunderground v.1.13,2013-03-08 11:25:00,
2013-03-08 05:27:00,14.7,11.5,30.30,East,80,0.0,0.0,87,0.00,,,0.00,Wunderground v.1.13,2013-03-08 11:27:00,
2013-03-08 05:28:00,14.7,11.5,30.30,East,80,0.0,0.0,87,0.00,,,0.00,Wunderground v.1.13,2013-03-08 11:28:00,
2013-03-08 05:32:00,14.7,11.5,30.30,East,80,0.0,0.0,87,0.00,,,0.00,Wunderground v.1.13,2013-03-08 11:32:00,
2013-03-08 05:33:00,14.6,11.4,30.30,East,80,0.0,0.0,87,0.00,,,0.00,Wunderground v.1.13,2013-03-08 11:33:00,
2013-03-08 05:36:00,14.1,10.7,30.30,East,80,0.0,0.0,86,0.00,,,0.00,Wunderground v.1.13,2013-03-08 11:36:00,
2013-03-08 05:39:00,13.6,10.2,30.30,East,80,0.0,0.0,86,0.00,,,0.00,Wunderground v.1.13,2013-03-08 11:39:00,
2013-03-08 05:44:00,13.3,9.9,30.30,East,80,0.0,0.0,86,0.00,,,0.00,Wunderground v.1.13,2013-03-08 11:44:00,
2013-03-08 05:46:00,13.2,10.1,30.30,East,80,0.0,0.0,87,0.00,,,0.00,Wunderground v.1.13,2013-03-08 11:46:00,
2013-03-08 05:49:00,13.2,10.1,30.29,East,80,0.0,1.0,87,0.00,,,0.00,Wunderground v.1.13,2013-03-08 11:49:00,
2013-03-08 05:53:00,13.2,10.1,30.29,East,80,1.0,1.0,87,0.00,,,0.00,Wunderground v.1.13,2013-03-08 11:53:00,
2013-03-08 05:55:00,13.2,10.1,30.29,East,80,1.0,1.0,87,0.00,,,0.00,Wunderground v.1.13,2013-03-08 11:55:00,
2013-03-08 05:58:00,13.4,10.3,30.29,East,80,1.0,2.0,87,0.00,,,0.00,Wunderground v.1.13,2013-03-08 11:58:00,
2013-03-08 06:00:00,13.5,10.4,30.29,East,80,1.0,1.0,87,0.00,,,0.00,Wunderground v.1.13,2013-03-08 12:00:00,
2013-03-08 06:05:00,13.9,11.0,30.29,East,80,1.0,1.0,88,0.00,,,0.00,Wunderground v.1.13,2013-03-08 12:05:00,
2013-03-08 06:07:00,14.1,11.2,30.29,East,80,1.0,2.0,88,0.00,,,0.00,Wunderground v.1.13,2013-03-08 12:07:00,
2013-03-08 06:09:00,14.3,11.4,30.29,East,80,1.0,2.0,88,0.00,,,0.00,Wunderground v.1.13,2013-03-08 12:09:00,
2013-03-08 06:11:00,14.3,11.4,30.29,East,80,1.0,1.0,88,0.00,,,0.00,Wunderground v.1.13,2013-03-08 12:11:00,
2013-03-08 06:17:00,14.6,11.7,30.30,East,80,1.0,1.0,88,0.00,,,0.00,Wunderground v.1.13,2013-03-08 12:17:00,
2013-03-08 06:18:00,14.7,11.8,30.30,East,80,1.0,1.0,88,0.00,,,0.00,Wunderground v.1.13,2013-03-08 12:18:00,
2013-03-08 06:24:00,15.0,12.1,30.30,East,80,1.0,1.0,88,0.00,,,0.00,Wunderground v.1.13,2013-03-08 12:24:00,
2013-03-08 06:25:00,15.1,12.2,30.30,East,80,1.0,1.0,88,0.00,,,0.00,Wunderground v.1.13,2013-03-08 12:25:00,
2013-03-08 06:27:00,15.2,12.3,30.30,East,80,1.0,1.0,88,0.00,,,0.00,Wunderground v.1.13,2013-03-08 12:27:00,
2013-03-08 06:33:00,15.2,12.3,30.30,East,80,0.0,0.0,88,0.00,,,0.00,Wunderground v.1.13,2013-03-08 12:33:00,
2013-03-08 06:36:00,15.2,12.3,30.30,East,80,0.0,0.0,88,0.00,,,0.00,Wunderground v.1.13,2013-03-08 12:36:00,
2013-03-08 06:38:00,15.1,12.2,30.30,East,80,0.0,0.0,88,0.00,,,0.00,Wunderground v.1.13,2013-03-08 12:38:00,
2013-03-08 06:40:00,15.1,12.2,30.30,East,80,0.0,0.0,88,0.00,,,0.00,Wunderground v.1.13,2013-03-08 12:40:00,
2013-03-08 06:42:00,15.1,12.2,30.30,East,80,0.0,0.0,88,0.00,,,0.00,Wunderground v.1.13,2013-03-08 12:42:00,
2013-03-08 06:45:00,15.0,12.1,30.30,East,80,0.0,0.0,88,0.00,,,0.00,Wunderground v.1.13,2013-03-08 12:45:00,
2013-03-08 06:49:00,14.9,12.0,30.30,East,80,0.0,0.0,88,0.00,,,0.00,Wunderground v.1.13,2013-03-08 12:49:00,
2013-03-08 06:50:00,14.8,11.9,30.30,East,80,0.0,0.0,88,0.00,,,0.00,Wunderground v.1.13,2013-03-08 12:50:00,
2013-03-08 06:51:00,14.8,11.9,30.30,East,80,0.0,0.0,88,0.00,,,0.00,Wunderground v.1.13,2013-03-08 12:51:00,
2013-03-08 06:56:00,14.5,11.6,30.29,East,80,0.0,1.0,88,0.00,,,0.00,Wunderground v.1.13,2013-03-08 12:56:00,
2013-03-08 06:58:00,14.4,11.5,30.30,East,80,1.0,1.0,88,0.00,,,0.00,Wunderground v.1.13,2013-03-08 12:58:00,
2013-03-08 07:02:00,14.1,11.2,30.30,East,80,1.0,1.0,88,0.00,,,0.00,Wunderground v.1.13,2013-03-08 13:02:00,
2013-03-08 07:04:00,14.1,11.2,30.30,East,80,1.0,1.0,88,0.00,,,0.00,Wunderground v.1.13,2013-03-08 13:04:00,
2013-03-08 07:08:00,14.2,11.3,30.30,East,80,1.0,1.0,88,0.00,,,0.00,Wunderground v.1.13,2013-03-08 13:08:00,
2013-03-08 07:09:00,14.3,11.4,30.30,East,80,1.0,1.0,88,0.00,,,0.00,Wunderground v.1.13,2013-03-08 13:09:00,
2013-03-08 07:10:00,14.3,11.4,30.29,East,80,1.0,1.0,88,0.00,,,0.00,Wunderground v.1.13,2013-03-08 13:10:00,
2013-03-08 07:14:00,14.5,11.6,30.29,East,80,1.0,2.0,88,0.00,,,0.00,Wunderground v.1.13,2013-03-08 13:14:00,
2013-03-08 07:16:00,14.7,11.8,30.29,East,80,1.0,1.0,88,0.00,,,0.00,Wunderground v.1.13,2013-03-08 13:16:00,
2013-03-08 07:22:00,15.2,12.5,30.30,East,80,1.0,1.0,89,0.00,,,0.00,Wunderground v.1.13,2013-03-08 13:22:00,
2013-03-08 07:23:00,15.3,12.6,30.30,East,80,1.0,2.0,89,0.00,,,0.00,Wunderground v.1.13,2013-03-08 13:23:00,
2013-03-08 07:28:00,15.8,13.1,30.30,East,80,1.0,1.0,89,0.00,,,0.00,Wunderground v.1.13,2013-03-08 13:28:00,
2013-03-08 07:31:00,16.1,13.4,30.30,East,80,1.0,1.0,89,0.00,,,0.00,Wunderground v.1.13,2013-03-08 13:31:00,
2013-03-08 07:33:00,16.2,13.5,30.30,East,80,1.0,4.0,89,0.00,,,0.00,Wunderground v.1.13,2013-03-08 13:33:00,
2013-03-08 07:37:00,16.0,13.3,30.29,East,80,1.0,2.0,89,0.00,,,0.00,Wunderground v.1.13,2013-03-08 13:37:00,
2013-03-08 07:38:00,15.9,13.2,30.29,East,80,2.0,2.0,89,0.00,,,0.00,Wunderground v.1.13,2013-03-08 13:38:00,
2013-03-08 07:41:00,15.9,13.2,30.29,East,80,2.0,3.0,89,0.00,,,0.00,Wunderground v.1.13,2013-03-08 13:41:00,
2013-03-08 07:45:00,15.9,13.2,30.29,East,80,3.0,5.0,89,0.00,,,0.00,Wunderground v.1.13,2013-03-08 13:45:00,
2013-03-08 07:46:00,16.0,13.3,30.29,East,80,3.0,3.0,89,0.00,,,0.00,Wunderground v.1.13,2013-03-08 13:46:00,
2013-03-08 07:47:00,16.0,13.3,30.29,East,80,3.0,4.0,89,0.00,,,0.00,Wunderground v.1.13,2013-03-08 13:47:00,
2013-03-08 07:51:00,16.1,13.4,30.29,East,80,3.0,3.0,89,0.00,,,0.00,Wunderground v.1.13,2013-03-08 13:51:00,
2013-03-08 07:54:00,16.3,13.6,30.29,East,80,2.0,6.0,89,0.00,,,0.00,Wunderground v.1.13,2013-03-08 13:54:00,
2013-03-08 07:57:00,16.8,14.1,30.28,East,80,3.0,6.0,89,0.00,,,0.00,Wunderground v.1.13,2013-03-08 13:57:00,
2013-03-08 07:58:00,17.0,14.3,30.28,East,80,3.0,6.0,89,0.00,,,0.00,Wunderground v.1.13,2013-03-08 13:58:00,
2013-03-08 08:00:00,17.2,14.5,30.28,East,80,4.0,4.0,89,0.00,,,0.00,Wunderground v.1.13,2013-03-08 14:00:00,
2013-03-08 08:03:00,17.4,14.7,30.29,East,80,4.0,5.0,89,0.00,,,0.00,Wunderground v.1.13,2013-03-08 14:03:00,
2013-03-08 08:04:00,17.5,14.8,30.29,ESE,116,4.0,5.0,89,0.00,,,0.00,Wunderground v.1.13,2013-03-08 14:04:00,
2013-03-08 08:06:00,17.7,15.0,30.28,ESE,117,4.0,5.0,89,0.00,,,0.00,Wunderground v.1.13,2013-03-08 14:06:00,
2013-03-08 08:09:00,17.9,14.9,30.28,ESE,116,4.0,5.0,88,0.00,,,0.00,Wunderground v.1.13,2013-03-08 14:09:00,
2013-03-08 08:12:00,18.0,15.0,30.28,ESE,115,3.0,3.0,88,0.00,,,0.00,Wunderground v.1.13,2013-03-08 14:12:00,
2013-03-08 08:15:00,18.4,15.4,30.28,ESE,116,3.0,4.0,88,0.00,,,0.00,Wunderground v.1.13,2013-03-08 14:15:00,
2013-03-08 08:19:00,19.0,16.0,30.29,ESE,119,4.0,6.0,88,0.00,,,0.00,Wunderground v.1.13,2013-03-08 14:19:00,
2013-03-08 08:21:00,19.2,16.2,30.28,ESE,118,4.0,6.0,88,0.00,,,0.00,Wunderground v.1.13,2013-03-08 14:21:00,
2013-03-08 08:24:00,19.3,16.1,30.28,ESE,119,4.0,5.0,87,0.00,,,0.00,Wunderground v.1.13,2013-03-08 14:24:00,
2013-03-08 08:28:00,19.6,16.4,30.28,ESE,119,4.0,4.0,87,0.00,,,0.00,Wunderground v.1.13,2013-03-08 14:28:00,
2013-03-08 08:32:00,20.1,16.9,30.28,ESE,120,4.0,5.0,87,0.00,,,0.00,Wunderground v.1.13,2013-03-08 14:32:00,
2013-03-08 08:34:00,20.5,17.0,30.28,ESE,123,4.0,5.0,86,0.00,,,0.00,Wunderground v.1.13,2013-03-08 14:34:00,
2013-03-08 08:36:00,20.7,17.2,30.28,ESE,121,4.0,5.0,86,0.00,,,0.00,Wunderground v.1.13,2013-03-08 14:36:00,
2013-03-08 08:38:00,20.8,17.0,30.28,ESE,122,5.0,6.0,85,0.00,,,0.00,Wunderground v.1.13,2013-03-08 14:38:00,
2013-03-08 08:40:00,20.8,17.0,30.28,ESE,121,5.0,6.0,85,0.00,,,0.00,Wunderground v.1.13,2013-03-08 14:40:00,
2013-03-08 08:41:00,20.8,17.0,30.28,SE,126,5.0,8.0,85,0.00,,,0.00,Wunderground v.1.13,2013-03-08 14:41:00,
2013-03-08 08:46:00,21.1,17.3,30.28,SE,126,6.0,8.0,85,0.00,,,0.00,Wunderground v.1.13,2013-03-08 14:46:00,
2013-03-08 08:47:00,21.2,17.1,30.28,SE,126,6.0,6.0,84,0.00,,,0.00,Wunderground v.1.13,2013-03-08 14:47:00,
2013-03-08 08:48:00,21.3,17.2,30.28,SE,126,6.0,6.0,84,0.00,,,0.00,Wunderground v.1.13,2013-03-08 14:48:00,
2013-03-08 08:53:00,21.7,17.6,30.28,SE,125,6.0,6.0,84,0.00,,,0.00,Wunderground v.1.13,2013-03-08 14:53:00,
2013-03-08 08:56:00,22.0,17.9,30.28,SE,125,6.0,6.0,84,0.00,,,0.00,Wunderground v.1.13,2013-03-08 14:56:00,
2013-03-08 09:00:00,22.6,18.5,30.28,SE,132,5.0,8.0,84,0.00,,,0.00,Wunderground v.1.13,2013-03-08 15:00:00,
2013-03-08 09:03:00,23.1,18.7,30.28,SE,130,5.0,8.0,83,0.00,,,0.00,Wunderground v.1.13,2013-03-08 15:03:00,
2013-03-08 09:06:00,23.3,18.9,30.28,SE,126,5.0,8.0,83,0.00,,,0.00,Wunderground v.1.13,2013-03-08 15:06:00,
2013-03-08 09:11:00,23.6,18.9,30.28,ESE,123,6.0,6.0,82,0.00,,,0.00,Wunderground v.1.13,2013-03-08 15:11:00,
2013-03-08 09:12:00,23.8,19.1,30.28,ESE,123,6.0,6.0,82,0.00,,,0.00,Wunderground v.1.13,2013-03-08 15:12:00,
2013-03-08 09:17:00,24.1,19.1,30.28,SE,128,5.0,8.0,81,0.00,,,0.00,Wunderground v.1.13,2013-03-08 15:17:00,
2013-03-08 09:18:00,24.1,19.1,30.28,ESE,123,5.0,8.0,81,0.00,,,0.00,Wunderground v.1.13,2013-03-08 15:18:00,
2013-03-08 09:24:00,24.5,19.5,30.28,SE,128,6.0,7.0,81,0.00,,,0.00,Wunderground v.1.13,2013-03-08 15:24:00,
2013-03-08 09:30:00,24.7,19.4,30.29,SE,124,6.0,7.0,80,0.00,,,0.00,Wunderground v.1.13,2013-03-08 15:30:00,
2013-03-08 09:33:00,24.6,19.3,30.29,ESE,123,7.0,9.0,80,0.00,,,0.00,Wunderground v.1.13,2013-03-08 15:33:00,
2013-03-08 09:35:00,24.7,19.4,30.29,SSE,152,7.0,7.0,80,0.00,,,0.00,Wunderground v.1.13,2013-03-08 15:35:00,
2013-03-08 09:37:00,25.1,20.1,30.29,SE,142,7.0,7.0,81,0.00,,,0.00,Wunderground v.1.13,2013-03-08 15:37:00,
2013-03-08 09:38:00,25.4,20.4,30.29,SE,134,6.0,7.0,81,0.00,,,0.00,Wunderground v.1.13,2013-03-08 15:38:00,
2013-03-08 09:40:00,25.6,20.3,30.29,SE,140,6.0,6.0,80,0.00,,,0.00,Wunderground v.1.13,2013-03-08 15:40:00,
2013-03-08 09:41:00,25.7,20.4,30.29,SE,133,5.0,6.0,80,0.00,,,0.00,Wunderground v.1.13,2013-03-08 15:41:00,
2013-03-08 09:45:00,25.9,20.3,30.29,ESE,121,5.0,6.0,79,0.00,,,0.00,Wunderground v.1.13,2013-03-08 15:45:00,
2013-03-08 09:46:00,26.0,20.4,30.29,SE,135,5.0,6.0,79,0.00,,,0.00,Wunderground v.1.13,2013-03-08 15:46:00,
2013-03-08 09:48:00,25.9,20.3,30.29,SE,132,5.0,7.0,79,0.00,,,0.00,Wunderground v.1.13,2013-03-08 15:48:00,
2013-03-08 09:51:00,26.1,20.2,30.28,SE,127,5.0,7.0,78,0.00,,,0.00,Wunderground v.1.13,2013-03-08 15:51:00,
2013-03-08 09:54:00,26.3,20.4,30.28,South,173,5.0,7.0,78,0.00,,,0.00,Wunderground v.1.13,2013-03-08 15:54:00,
2013-03-08 09:58:00,26.5,20.6,30.28,ESE,123,6.0,7.0,78,0.00,,,0.00,Wunderground v.1.13,2013-03-08 15:58:00,
2013-03-08 10:02:00,26.7,20.8,30.28,SE,136,6.0,8.0,78,0.00,,,0.00,Wunderground v.1.13,2013-03-08 16:02:00,
2013-03-08 10:03:00,26.9,21.0,30.28,SE,136,6.0,8.0,78,0.00,,,0.00,Wunderground v.1.13,2013-03-08 16:03:00,
2013-03-08 10:04:00,27.0,21.1,30.28,ESE,119,5.0,8.0,78,0.00,,,0.00,Wunderground v.1.13,2013-03-08 16:04:00,
2013-03-08 10:07:00,27.0,20.7,30.28,South,170,5.0,7.0,77,0.00,,,0.00,Wunderground v.1.13,2013-03-08 16:07:00,
2013-03-08 10:08:00,27.1,20.8,30.28,South,171,5.0,7.0,77,0.00,,,0.00,Wunderground v.1.13,2013-03-08 16:08:00,
2013-03-08 10:10:00,27.4,21.1,30.28,ESE,123,4.0,6.0,77,0.00,,,0.00,Wunderground v.1.13,2013-03-08 16:10:00,
2013-03-08 10:12:00,27.5,21.2,30.28,ESE,118,5.0,6.0,77,0.00,,,0.00,Wunderground v.1.13,2013-03-08 16:12:00,
2013-03-08 10:14:00,27.5,21.2,30.28,SE,127,5.0,8.0,77,0.00,,,0.00,Wunderground v.1.13,2013-03-08 16:14:00,
2013-03-08 10:16:00,27.4,21.1,30.28,SE,135,5.0,6.0,77,0.00,,,0.00,Wunderground v.1.13,2013-03-08 16:16:00,
2013-03-08 10:17:00,27.4,21.1,30.28,SE,132,5.0,6.0,77,0.00,,,0.00,Wunderground v.1.13,2013-03-08 16:17:00,
2013-03-08 10:21:00,27.8,21.8,30.28,SSE,159,5.0,6.0,78,0.00,,,0.00,Wunderground v.1.13,2013-03-08 16:21:00,
2013-03-08 10:22:00,28.0,22.0,30.28,SE,132,5.0,6.0,78,0.00,,,0.00,Wunderground v.1.13,2013-03-08 16:22:00,
2013-03-08 10:23:00,28.2,21.9,30.28,SE,125,5.0,6.0,77,0.00,,,0.00,Wunderground v.1.13,2013-03-08 16:23:00,
2013-03-08 10:27:00,28.2,21.6,30.27,SE,130,5.0,8.0,76,0.00,,,0.00,Wunderground v.1.13,2013-03-08 16:27:00,
2013-03-08 10:29:00,28.1,21.5,30.27,SE,128,5.0,9.0,76,0.00,,,0.00,Wunderground v.1.13,2013-03-08 16:29:00,
2013-03-08 10:31:00,28.0,21.4,30.27,SE,125,6.0,7.0,76,0.00,,,0.00,Wunderground v.1.13,2013-03-08 16:31:00,
2013-03-08 10:34:00,28.0,21.4,30.26,SE,134,7.0,7.0,76,0.00,,,0.00,Wunderground v.1.13,2013-03-08 16:34:00,
2013-03-08 10:37:00,28.2,21.9,30.27,SE,134,7.0,7.0,77,0.00,,,0.00,Wunderground v.1.13,2013-03-08 16:37:00,
2013-03-08 10:39:00,28.4,22.1,30.27,SE,132,7.0,7.0,77,0.00,,,0.00,Wunderground v.1.13,2013-03-08 16:39:00,
2013-03-08 10:40:00,28.5,22.2,30.27,SE,133,6.0,7.0,77,0.00,,,0.00,Wunderground v.1.13,2013-03-08 16:40:00,
2013-03-08 10:42:00,28.6,22.0,30.27,SE,124,6.0,10.0,76,0.00,,,0.00,Wunderground v.1.13,2013-03-08 16:42:00,
2013-03-08 10:46:00,28.5,21.6,30.27,SE,124,6.0,6.0,75,0.00,,,0.00,Wunderground v.1.13,2013-03-08 16:46:00,
2013-03-08 10:48:00,28.7,22.1,30.27,SE,125,6.0,7.0,76,0.00,,,0.00,Wunderground v.1.13,2013-03-08 16:48:00,
2013-03-08 10:49:00,28.7,22.1,30.26,ESE,123,6.0,7.0,76,0.00,,,0.00,Wunderground v.1.13,2013-03-08 16:49:00,
2013-03-08 10:52:00,28.9,22.0,30.26,SE,133,6.0,8.0,75,0.00,,,0.00,Wunderground v.1.13,2013-03-08 16:52:00,
2013-03-08 10:55:00,29.2,22.3,30.26,SE,139,6.0,8.0,75,0.00,,,0.00,Wunderground v.1.13,2013-03-08 16:55:00,
2013-03-08 10:56:00,29.2,22.3,30.26,ESE,118,6.0,7.0,75,0.00,,,0.00,Wunderground v.1.13,2013-03-08 16:56:00,
2013-03-08 10:57:00,29.3,22.4,30.26,ESE,121,6.0,7.0,75,0.00,,,0.00,Wunderground v.1.13,2013-03-08 16:57:00,
2013-03-08 10:58:00,29.3,22.7,30.26,SE,129,6.0,7.0,76,0.00,,,0.00,Wunderground v.1.13,2013-03-08 16:58:00,
2013-03-08 11:03:00,29.3,22.4,30.26,SE,124,6.0,9.0,75,0.00,,,0.00,Wunderground v.1.13,2013-03-08 17:03:00,
2013-03-08 11:07:00,29.2,22.3,30.27,SE,124,7.0,12.0,75,0.00,,,0.00,Wunderground v.1.13,2013-03-08 17:07:00,
2013-03-08 11:08:00,29.2,22.6,30.27,ESE,123,7.0,12.0,76,0.00,,,0.00,Wunderground v.1.13,2013-03-08 17:08:00,
2013-03-08 11:10:00,29.2,22.6,30.27,SE,129,7.0,7.0,76,0.00,,,0.00,Wunderground v.1.13,2013-03-08 17:10:00,
2013-03-08 11:15:00,29.8,23.2,30.27,WSW,241,6.0,6.0,76,0.00,,,0.00,Wunderground v.1.13,2013-03-08 17:15:00,
2013-03-08 11:16:00,29.9,23.3,30.27,SE,129,6.0,6.0,76,0.00,,,0.00,Wunderground v.1.13,2013-03-08 17:16:00,
2013-03-08 11:17:00,30.0,23.0,30.27,SE,136,5.0,6.0,75,0.00,,,0.00,Wunderground v.1.13,2013-03-08 17:17:00,
2013-03-08 11:20:00,30.3,23.0,30.27,SSE,163,4.0,4.0,74,0.00,,,0.00,Wunderground v.1.13,2013-03-08 17:20:00,
2013-03-08 11:23:00,30.6,23.3,30.27,ESE,123,4.0,8.0,74,0.00,,,0.00,Wunderground v.1.13,2013-03-08 17:23:00,
2013-03-08 11:25:00,30.7,23.4,30.27,ESE,122,4.0,4.0,74,0.00,,,0.00,Wunderground v.1.13,2013-03-08 17:25:00,
2013-03-08 11:26:00,30.9,23.6,30.27,ESE,121,4.0,7.0,74,0.00,,,0.00,Wunderground v.1.13,2013-03-08 17:26:00,
2013-03-08 11:29:00,31.2,23.5,30.27,SE,136,4.0,7.0,73,0.00,,,0.00,Wunderground v.1.13,2013-03-08 17:29:00,
2013-03-08 11:32:00,31.6,23.9,30.26,SE,134,4.0,7.0,73,0.00,,,0.00,Wunderground v.1.13,2013-03-08 17:32:00,
2013-03-08 11:36:00,31.8,23.8,30.26,SE,130,4.0,8.0,72,0.00,,,0.00,Wunderground v.1.13,2013-03-08 17:36:00,
2013-03-08 11:37:00,31.7,23.4,30.26,SE,128,4.0,8.0,71,0.00,,,0.00,Wunderground v.1.13,2013-03-08 17:37:00,
2013-03-08 11:38:00,31.6,23.6,30.26,SE,127,4.0,8.0,72,0.00,,,0.00,Wunderground v.1.13,2013-03-08 17:38:00,
2013-03-08 11:42:00,31.4,23.4,30.26,SE,127,5.0,7.0,72,0.00,,,0.00,Wunderground v.1.13,2013-03-08 17:42:00,
2013-03-08 11:43:00,31.4,23.4,30.26,SE,127,5.0,7.0,72,0.00,,,0.00,Wunderground v.1.13,2013-03-08 17:43:00,
2013-03-08 11:44:00,31.4,23.7,30.26,SE,127,6.0,7.0,73,0.00,,,0.00,Wunderground v.1.13,2013-03-08 17:44:00,
2013-03-08 11:48:00,31.9,23.9,30.26,ESE,119,5.0,6.0,72,0.00,,,0.00,Wunderground v.1.13,2013-03-08 17:48:00,
2013-03-08 11:51:00,32.4,24.0,30.25,ESE,119,3.0,5.0,71,0.00,,,0.00,Wunderground v.1.13,2013-03-08 17:51:00,
2013-03-08 11:57:00,32.3,24.3,30.25,SE,124,4.0,12.0,72,0.00,,,0.00,Wunderground v.1.13,2013-03-08 17:57:00,
2013-03-08 12:00:00,32.1,24.1,30.25,ESE,119,6.0,6.0,72,0.00,,,0.00,Wunderground v.1.13,2013-03-08 18:00:00,
2013-03-08 12:01:00,32.1,24.1,30.25,ESE,119,7.0,7.0,72,0.00,,,0.00,Wunderground v.1.13,2013-03-08 18:01:00,
2013-03-08 12:02:00,32.0,24.0,30.25,ESE,121,7.0,7.0,72,0.00,,,0.00,Wunderground v.1.13,2013-03-08 18:02:00,
2013-03-08 12:06:00,32.2,24.2,30.25,ESE,120,7.0,7.0,72,0.00,,,0.00,Wunderground v.1.13,2013-03-08 18:06:00,
2013-03-08 12:07:00,32.3,24.3,30.25,SE,126,7.0,7.0,72,0.00,,,0.00,Wunderground v.1.13,2013-03-08 18:07:00,
2013-03-08 12:09:00,32.4,24.7,30.25,SE,128,7.0,10.0,73,0.00,,,0.01,Wunderground v.1.13,2013-03-08 18:09:00,
2013-03-08 12:11:00,32.4,24.4,30.25,SE,125,7.0,8.0,72,0.00,,,0.01,Wunderground v.1.13,2013-03-08 18:11:00,
2013-03-08 12:12:00,32.4,24.4,30.25,SE,138,7.0,8.0,72,0.00,,,0.01,Wunderground v.1.13,2013-03-08 18:12:00,
2013-03-08 12:14:00,32.4,24.0,30.25,ESE,123,7.0,8.0,71,0.00,,,0.01,Wunderground v.1.13,2013-03-08 18:14:00,
2013-03-08 12:17:00,32.5,24.5,30.25,SE,128,7.0,9.0,72,0.00,,,0.01,Wunderground v.1.13,2013-03-08 18:17:00,
2013-03-08 12:20:00,32.6,24.6,30.25,ESE,116,8.0,8.0,72,0.00,,,0.01,Wunderground v.1.13,2013-03-08 18:20:00,
2013-03-08 12:21:00,32.7,24.7,30.25,ESE,115,7.0,8.0,72,0.00,,,0.01,Wunderground v.1.13,2013-03-08 18:21:00,
2013-03-08 12:23:00,32.9,25.2,30.25,ESE,121,7.0,8.0,73,0.00,,,0.01,Wunderground v.1.13,2013-03-08 18:23:00,
2013-03-08 12:25:00,32.9,24.5,30.25,ESE,123,7.0,7.0,71,0.00,,,0.01,Wunderground v.1.13,2013-03-08 18:25:00,
2013-03-08 12:26:00,32.9,24.9,30.25,SE,128,6.0,7.0,72,0.00,,,0.01,Wunderground v.1.13,2013-03-08 18:26:00,
2013-03-08 12:29:00,32.9,24.5,30.25,ESE,119,6.0,9.0,71,0.00,,,0.01,Wunderground v.1.13,2013-03-08 18:29:00,
2013-03-08 12:31:00,32.9,24.9,30.24,ESE,110,6.0,9.0,72,0.00,,,0.01,Wunderground v.1.13,2013-03-08 18:31:00,
2013-03-08 12:35:00,33.0,25.0,30.24,ESE,121,7.0,7.0,72,0.00,,,0.01,Wunderground v.1.13,2013-03-08 18:35:00,
2013-03-08 12:37:00,33.2,25.1,30.24,SE,130,7.0,7.0,72,0.00,,,0.01,Wunderground v.1.13,2013-03-08 18:37:00,
2013-03-08 12:43:00,33.5,25.1,30.24,ESE,121,6.0,11.0,71,0.00,,,0.01,Wunderground v.1.13,2013-03-08 18:43:00,
2013-03-08 12:44:00,33.6,25.2,30.24,SE,128,6.0,11.0,71,0.00,,,0.01,Wunderground v.1.13,2013-03-08 18:44:00,
2013-03-08 12:49:00,33.5,24.4,30.23,SE,128,6.0,10.0,69,0.00,,,0.02,Wunderground v.1.13,2013-03-08 18:49:00,
2013-03-08 12:50:00,33.3,24.2,30.23,SE,126,7.0,7.0,69,0.00,,,0.02,Wunderground v.1.13,2013-03-08 18:50:00,
2013-03-08 12:53:00,33.3,24.6,30.23,ESE,117,7.0,10.0,70,0.00,,,0.02,Wunderground v.1.13,2013-03-08 18:53:00,
2013-03-08 12:56:00,33.2,24.5,30.23,SE,127,7.0,8.0,70,0.00,,,0.02,Wunderground v.1.13,2013-03-08 18:56:00,
2013-03-08 12:58:00,33.2,24.5,30.23,ESE,122,8.0,8.0,70,0.00,,,0.02,Wunderground v.1.13,2013-03-08 18:58:00,
2013-03-08 13:00:00,33.2,24.5,30.23,ESE,121,7.0,7.0,70,0.00,,,0.02,Wunderground v.1.13,2013-03-08 19:00:00,
2013-03-08 13:01:00,33.3,24.6,30.23,ESE,121,7.0,7.0,70,0.00,,,0.02,Wunderground v.1.13,2013-03-08 19:01:00,
2013-03-08 13:04:00,33.7,24.6,30.24,ESE,121,6.0,7.0,69,0.00,,,0.02,Wunderground v.1.13,2013-03-08 19:04:00,
2013-03-08 13:09:00,33.7,24.6,30.23,ESE,123,5.0,7.0,69,0.00,,,0.02,Wunderground v.1.13,2013-03-08 19:09:00,
2013-03-08 13:10:00,33.7,25.0,30.23,ESE,121,5.0,5.0,70,0.00,,,0.02,Wunderground v.1.13,2013-03-08 19:10:00,
2013-03-08 13:13:00,34.1,25.3,30.23,ESE,121,5.0,5.0,70,0.00,,,0.02,Wunderground v.1.13,2013-03-08 19:13:00,
2013-03-08 13:14:00,34.2,25.1,30.23,SE,142,5.0,5.0,69,0.00,,,0.02,Wunderground v.1.13,2013-03-08 19:14:00,
2013-03-08 13:19:00,34.2,25.1,30.23,ESE,114,5.0,7.0,69,0.00,,,0.02,Wunderground v.1.13,2013-03-08 19:19:00,
2013-03-08 13:20:00,34.2,25.4,30.23,ESE,113,5.0,5.0,70,0.00,,,0.02,Wunderground v.1.13,2013-03-08 19:20:00,
2013-03-08 13:22:00,34.4,25.6,30.23,ENE,67,5.0,5.0,70,0.00,,,0.02,Wunderground v.1.13,2013-03-08 19:22:00,
2013-03-08 13:24:00,34.5,25.7,30.22,ESE,102,5.0,11.0,70,0.00,,,0.02,Wunderground v.1.13,2013-03-08 19:24:00,
2013-03-08 13:25:00,34.5,25.4,30.22,ESE,116,6.0,8.0,69,0.00,,,0.02,Wunderground v.1.13,2013-03-08 19:25:00,
2013-03-08 13:30:00,34.4,25.3,30.22,SE,128,6.0,9.0,69,0.00,,,0.03,Wunderground v.1.13,2013-03-08 19:30:00,
2013-03-08 13:31:00,34.4,25.3,30.22,SE,128,6.0,9.0,69,0.00,,,0.03,Wunderground v.1.13,2013-03-08 19:31:00,
2013-03-08 13:35:00,34.2,25.4,30.22,ESE,118,7.0,9.0,70,0.00,,,0.03,Wunderground v.1.13,2013-03-08 19:35:00,
2013-03-08 13:37:00,34.1,25.3,30.22,ESE,112,7.0,9.0,70,0.00,,,0.03,Wunderground v.1.13,2013-03-08 19:37:00,
2013-03-08 13:39:00,34.2,25.1,30.22,SE,126,7.0,9.0,69,0.00,,,0.03,Wunderground v.1.13,2013-03-08 19:39:00,
2013-03-08 13:43:00,34.3,25.5,30.22,ESE,121,6.0,9.0,70,0.00,,,0.03,Wunderground v.1.13,2013-03-08 19:43:00,
2013-03-08 13:46:00,34.3,25.2,30.22,ESE,123,6.0,6.0,69,0.00,,,0.03,Wunderground v.1.13,2013-03-08 19:46:00,
2013-03-08 13:50:00,34.6,25.5,30.22,ESE,106,6.0,7.0,69,0.00,,,0.03,Wunderground v.1.13,2013-03-08 19:50:00,
2013-03-08 13:53:00,34.8,25.3,30.21,East,93,6.0,10.0,68,0.00,,,0.03,Wunderground v.1.13,2013-03-08 19:53:00,
2013-03-08 13:56:00,34.8,25.3,30.21,NNE,27,6.0,6.0,68,0.00,,,0.03,Wunderground v.1.13,2013-03-08 19:56:00,
2013-03-08 13:57:00,34.8,25.3,30.21,ESE,115,6.0,9.0,68,0.00,,,0.03,Wunderground v.1.13,2013-03-08 19:57:00,
2013-03-08 13:59:00,34.8,25.7,30.21,SE,125,6.0,10.0,69,0.00,,,0.03,Wunderground v.1.13,2013-03-08 19:59:00,
2013-03-08 14:04:00,34.8,25.3,30.21,SE,125,6.0,8.0,68,0.00,,,0.03,Wunderground v.1.13,2013-03-08 20:04:00,
2013-03-08 14:06:00,34.8,25.7,30.22,ESE,123,7.0,13.0,69,0.00,,,0.03,Wunderground v.1.13,2013-03-08 20:06:00,
2013-03-08 14:07:00,34.8,25.3,30.22,SE,125,8.0,13.0,68,0.00,,,0.03,Wunderground v.1.13,2013-03-08 20:07:00,
2013-03-08 14:13:00,34.6,25.1,30.21,ESE,118,9.0,11.0,68,0.00,,,0.03,Wunderground v.1.13,2013-03-08 20:13:00,
2013-03-08 14:14:00,34.6,25.1,30.21,SE,125,9.0,11.0,68,0.00,,,0.03,Wunderground v.1.13,2013-03-08 20:14:00,
2013-03-08 14:15:00,34.6,25.1,30.21,ESE,122,9.0,10.0,68,0.00,,,0.03,Wunderground v.1.13,2013-03-08 20:15:00,
2013-03-08 14:19:00,34.7,25.6,30.22,ESE,121,9.0,10.0,69,0.00,,,0.04,Wunderground v.1.13,2013-03-08 20:19:00,
2013-03-08 14:23:00,34.8,25.7,30.22,SE,128,8.0,16.0,69,0.00,,,0.04,Wunderground v.1.13,2013-03-08 20:23:00,
2013-03-08 14:24:00,34.7,25.2,30.21,ESE,118,9.0,16.0,68,0.00,,,0.04,Wunderground v.1.13,2013-03-08 20:24:00,
2013-03-08 14:25:00,34.7,25.2,30.21,ESE,114,9.0,13.0,68,0.00,,,0.04,Wunderground v.1.13,2013-03-08 20:25:00,
2013-03-08 14:26:00,34.6,25.5,30.21,ESE,121,10.0,13.0,69,0.00,,,0.04,Wunderground v.1.13,2013-03-08 20:26:00,
2013-03-08 14:30:00,34.6,25.1,30.22,SE,126,11.0,11.0,68,0.00,,,0.04,Wunderground v.1.13,2013-03-08 20:30:00,
2013-03-08 14:33:00,34.7,25.2,30.21,ESE,123,11.0,13.0,68,0.00,,,0.04,Wunderground v.1.13,2013-03-08 20:33:00,
2013-03-08 14:36:00,34.8,25.7,30.21,SE,128,10.0,11.0,69,0.00,,,0.04,Wunderground v.1.13,2013-03-08 20:36:00,
2013-03-08 14:38:00,34.9,25.8,30.21,ESE,117,9.0,11.0,69,0.00,,,0.04,Wunderground v.1.13,2013-03-08 20:38:00,
2013-03-08 14:41:00,35.1,25.9,30.21,ESE,113,8.0,11.0,69,0.00,,,0.04,Wunderground v.1.13,2013-03-08 20:41:00,
2013-03-08 14:43:00,35.1,25.9,30.21,ESE,117,7.0,11.0,69,0.00,,,0.04,Wunderground v.1.13,2013-03-08 20:43:00,
2013-03-08 14:47:00,34.9,25.8,30.21,ESE,111,8.0,9.0,69,0.00,,,0.04,Wunderground v.1.13,2013-03-08 20:47:00,
2013-03-08 14:49:00,34.9,25.8,30.21,ESE,117,8.0,9.0,69,0.00,,,0.04,Wunderground v.1.13,2013-03-08 20:49:00,
2013-03-08 14:51:00,35.0,25.9,30.21,ESE,111,8.0,8.0,69,0.00,,,0.04,Wunderground v.1.13,2013-03-08 20:51:00,
2013-03-08 14:54:00,35.1,25.2,30.21,ESE,119,9.0,12.0,67,0.00,,,0.04,Wunderground v.1.13,2013-03-08 20:54:00,
2013-03-08 14:57:00,35.2,25.3,30.21,SE,140,9.0,13.0,67,0.00,,,0.04,Wunderground v.1.13,2013-03-08 20:57:00,
2013-03-08 14:59:00,35.4,25.9,30.21,SE,128,9.0,13.0,68,0.00,,,0.04,Wunderground v.1.13,2013-03-08 20:59:00,
2013-03-08 15:04:00,35.6,26.4,30.21,ESE,119,8.0,10.0,69,0.00,,,0.04,Wunderground v.1.13,2013-03-08 21:04:00,
2013-03-08 15:07:00,35.7,26.2,30.21,ESE,113,6.0,8.0,68,0.00,,,0.04,Wunderground v.1.13,2013-03-08 21:07:00,
2013-03-08 15:10:00,36.0,26.1,30.21,SE,142,6.0,6.0,67,0.00,,,0.04,Wunderground v.1.13,2013-03-08 21:10:00,
2013-03-08 15:12:00,36.1,26.2,30.21,SE,130,6.0,6.0,67,0.00,,,0.04,Wunderground v.1.13,2013-03-08 21:12:00,
2013-03-08 15:13:00,36.2,25.9,30.21,ESE,123,5.0,6.0,66,0.00,,,0.04,Wunderground v.1.13,2013-03-08 21:13:00,
2013-03-08 15:17:00,35.9,26.4,30.21,ESE,123,6.0,11.0,68,0.00,,,0.04,Wunderground v.1.13,2013-03-08 21:17:00,
2013-03-08 15:18:00,35.8,25.9,30.21,ESE,120,7.0,11.0,67,0.00,,,0.04,Wunderground v.1.13,2013-03-08 21:18:00,
2013-03-08 15:23:00,35.5,26.3,30.21,ESE,121,8.0,11.0,69,0.00,,,0.04,Wunderground v.1.13,2013-03-08 21:23:00,
2013-03-08 15:26:00,35.6,26.4,30.21,ESE,105,8.0,9.0,69,0.00,,,0.04,Wunderground v.1.13,2013-03-08 21:26:00,
2013-03-08 15:27:00,35.6,26.4,30.21,ESE,121,8.0,11.0,69,0.00,,,0.04,Wunderground v.1.13,2013-03-08 21:27:00,
2013-03-08 15:28:00,35.6,26.4,30.21,SE,125,8.0,11.0,69,0.00,,,0.04,Wunderground v.1.13,2013-03-08 21:28:00,
2013-03-08 15:31:00,35.6,26.4,30.21,ESE,121,8.0,8.0,69,0.00,,,0.04,Wunderground v.1.13,2013-03-08 21:31:00,
2013-03-08 15:33:00,35.7,26.2,30.21,SE,125,8.0,9.0,68,0.00,,,0.04,Wunderground v.1.13,2013-03-08 21:33:00,
2013-03-08 15:34:00,35.7,26.2,30.21,ESE,121,8.0,9.0,68,0.00,,,0.04,Wunderground v.1.13,2013-03-08 21:34:00,
2013-03-08 15:36:00,35.9,26.4,30.21,ESE,123,7.0,7.0,68,0.00,,,0.04,Wunderground v.1.13,2013-03-08 21:36:00,
2013-03-08 15:40:00,36.3,26.4,30.21,SE,137,6.0,7.0,67,0.00,,,0.04,Wunderground v.1.13,2013-03-08 21:40:00,
2013-03-08 15:41:00,36.3,26.7,30.21,SE,137,6.0,6.0,68,0.00,,,0.04,Wunderground v.1.13,2013-03-08 21:41:00,
2013-03-08 15:44:00,36.3,26.7,30.21,ESE,119,5.0,6.0,68,0.00,,,0.04,Wunderground v.1.13,2013-03-08 21:44:00,
2013-03-08 15:46:00,36.3,26.7,30.21,ESE,122,5.0,7.0,68,0.00,,,0.04,Wunderground v.1.13,2013-03-08 21:46:00,
2013-03-08 15:50:00,36.1,26.6,30.21,ESE,120,6.0,12.0,68,0.00,,,0.04,Wunderground v.1.13,2013-03-08 21:50:00,
2013-03-08 15:52:00,36.0,26.5,30.21,ESE,106,6.0,6.0,68,0.00,,,0.04,Wunderground v.1.13,2013-03-08 21:52:00,
2013-03-08 15:54:00,36.1,26.2,30.21,East,88,6.0,6.0,67,0.00,,,0.04,Wunderground v.1.13,2013-03-08 21:54:00,
2013-03-08 15:55:00,36.2,26.3,30.21,East,89,6.0,6.0,67,0.00,,,0.04,Wunderground v.1.13,2013-03-08 21:55:00,
2013-03-08 15:57:00,36.1,26.6,30.21,ESE,121,6.0,8.0,68,0.00,,,0.04,Wunderground v.1.13,2013-03-08 21:57:00,
2013-03-08 16:00:00,36.1,26.2,30.21,ESE,119,6.0,7.0,67,0.00,,,0.04,Wunderground v.1.13,2013-03-08 22:00:00,
2013-03-08 16:03:00,36.0,26.5,30.20,ESE,107,6.0,10.0,68,0.00,,,0.04,Wunderground v.1.13,2013-03-08 22:03:00,
2013-03-08 16:04:00,35.9,26.4,30.20,ESE,118,7.0,10.0,68,0.00,,,0.04,Wunderground v.1.13,2013-03-08 22:04:00,
2013-03-08 16:09:00,35.6,26.4,30.21,ESE,122,7.0,7.0,69,0.00,,,0.04,Wunderground v.1.13,2013-03-08 22:09:00,
2013-03-08 16:12:00,35.6,26.4,30.21,ESE,117,7.0,8.0,69,0.00,,,0.04,Wunderground v.1.13,2013-03-08 22:12:00,
2013-03-08 16:15:00,35.6,26.4,30.20,ESE,116,7.0,7.0,69,0.00,,,0.04,Wunderground v.1.13,2013-03-08 22:15:00,
2013-03-08 16:18:00,35.6,26.8,30.20,ESE,121,7.0,7.0,70,0.00,,,0.04,Wunderground v.1.13,2013-03-08 22:18:00,
2013-03-08 16:20:00,35.6,26.4,30.20,ESE,115,7.0,7.0,69,0.00,,,0.04,Wunderground v.1.13,2013-03-08 22:20:00,
2013-03-08 16:25:00,35.5,26.7,30.21,ESE,122,7.0,7.0,70,0.00,,,0.04,Wunderground v.1.13,2013-03-08 22:25:00,
2013-03-08 16:26:00,35.5,26.7,30.21,ESE,119,7.0,8.0,70,0.00,,,0.04,Wunderground v.1.13,2013-03-08 22:26:00,
2013-03-08 16:30:00,35.6,26.4,30.20,ESE,121,7.0,7.0,69,0.00,,,0.04,Wunderground v.1.13,2013-03-08 22:30:00,
2013-03-08 16:31:00,35.6,26.4,30.20,ESE,121,7.0,7.0,69,0.00,,,0.04,Wunderground v.1.13,2013-03-08 22:31:00,
2013-03-08 16:33:00,35.5,26.3,30.20,ESE,123,7.0,10.0,69,0.00,,,0.04,Wunderground v.1.13,2013-03-08 22:33:00,
2013-03-08 16:37:00,35.6,26.8,30.20,ESE,115,7.0,10.0,70,0.00,,,0.04,Wunderground v.1.13,2013-03-08 22:37:00,
2013-03-08 16:39:00,35.6,26.4,30.20,ESE,115,7.0,10.0,69,0.00,,,0.04,Wunderground v.1.13,2013-03-08 22:39:00,
2013-03-08 16:40:00,35.7,26.2,30.20,SE,126,7.0,8.0,68,0.00,,,0.04,Wunderground v.1.13,2013-03-08 22:40:00,
2013-03-08 16:43:00,35.7,26.2,30.20,SE,126,7.0,9.0,68,0.00,,,0.04,Wunderground v.1.13,2013-03-08 22:43:00,
2013-03-08 16:44:00,35.7,26.5,30.20,ESE,114,7.0,9.0,69,0.00,,,0.04,Wunderground v.1.13,2013-03-08 22:44:00,
2013-03-08 16:48:00,35.6,26.4,30.20,ESE,123,7.0,8.0,69,0.00,,,0.04,Wunderground v.1.13,2013-03-08 22:48:00,
2013-03-08 16:49:00,35.6,26.4,30.20,ESE,108,7.0,10.0,69,0.00,,,0.04,Wunderground v.1.13,2013-03-08 22:49:00,
2013-03-08 16:55:00,35.4,26.6,30.20,ESE,121,7.0,7.0,70,0.00,,,0.04,Wunderground v.1.13,2013-03-08 22:55:00,
2013-03-08 16:56:00,35.4,26.6,30.20,ESE,122,7.0,7.0,70,0.00,,,0.04,Wunderground v.1.13,2013-03-08 22:56:00,
2013-03-08 17:00:00,35.4,26.6,30.20,SE,126,7.0,7.0,70,0.00,,,0.04,Wunderground v.1.13,2013-03-08 23:00:00,
2013-03-08 17:03:00,35.4,26.6,30.20,ESE,111,7.0,8.0,70,0.00,,,0.04,Wunderground v.1.13,2013-03-08 23:03:00,
2013-03-08 17:04:00,35.4,26.6,30.20,SE,128,7.0,8.0,70,0.00,,,0.04,Wunderground v.1.13,2013-03-08 23:04:00,
2013-03-08 17:09:00,35.2,26.4,30.20,ESE,121,7.0,8.0,70,0.00,,,0.04,Wunderground v.1.13,2013-03-08 23:09:00,
2013-03-08 17:10:00,35.2,26.4,30.20,ESE,103,6.0,6.0,70,0.00,,,0.04,Wunderground v.1.13,2013-03-08 23:10:00,
2013-03-08 17:12:00,35.2,26.4,30.20,East,97,7.0,7.0,70,0.00,,,0.04,Wunderground v.1.13,2013-03-08 23:12:00,
2013-03-08 17:16:00,35.4,26.6,30.20,ESE,110,6.0,7.0,70,0.00,,,0.04,Wunderground v.1.13,2013-03-08 23:16:00,
2013-03-08 17:18:00,35.3,26.5,30.20,ESE,122,6.0,7.0,70,0.00,,,0.04,Wunderground v.1.13,2013-03-08 23:18:00,
2013-03-08 17:20:00,35.2,26.4,30.20,ESE,123,6.0,7.0,70,0.00,,,0.04,Wunderground v.1.13,2013-03-08 23:20:00,
2013-03-08 17:22:00,35.1,26.6,30.20,SE,125,6.0,7.0,71,0.00,,,0.04,Wunderground v.1.13,2013-03-08 23:22:00,
2013-03-08 17:25:00,35.1,26.6,30.19,ESE,115,6.0,6.0,71,0.00,,,0.04,Wunderground v.1.13,2013-03-08 23:25:00,
2013-03-08 17:26:00,35.1,26.6,30.20,ESE,116,6.0,6.0,71,0.00,,,0.04,Wunderground v.1.13,2013-03-08 23:26:00,
2013-03-08 17:29:00,34.9,26.8,30.20,ESE,117,6.0,6.0,72,0.00,,,0.04,Wunderground v.1.13,2013-03-08 23:29:00,
2013-03-08 17:31:00,34.8,26.4,30.20,ESE,118,5.0,7.0,71,0.00,,,0.04,Wunderground v.1.13,2013-03-08 23:31:00,
2013-03-08 17:37:00,34.8,26.4,30.19,ESE,118,4.0,4.0,71,0.00,,,0.04,Wunderground v.1.13,2013-03-08 23:37:00,
2013-03-08 17:41:00,35.1,26.6,30.19,ESE,118,3.0,5.0,71,0.00,,,0.04,Wunderground v.1.13,2013-03-08 23:41:00,
2013-03-08 17:43:00,35.2,26.7,30.19,East,98,3.0,7.0,71,0.00,,,0.04,Wunderground v.1.13,2013-03-08 23:43:00,
2013-03-08 17:46:00,35.3,26.8,30.19,East,92,4.0,5.0,71,0.00,,,0.04,Wunderground v.1.13,2013-03-08 23:46:00,
2013-03-08 17:48:00,35.3,26.8,30.19,East,87,4.0,5.0,71,0.00,,,0.04,Wunderground v.1.13,2013-03-08 23:48:00,
2013-03-08 17:54:00,35.3,26.8,30.18,East,86,3.0,6.0,71,0.00,,,0.04,Wunderground v.1.13,2013-03-08 23:54:00,
2013-03-08 17:59:00,35.2,26.7,30.18,East,92,4.0,5.0,71,0.00,,,0.04,Wunderground v.1.13,2013-03-08 23:59:00,
2013-03-08 18:01:00,35.1,26.6,30.18,ESE,118,4.0,6.0,71,0.00,,,0.04,Wunderground v.1.13,2013-03-09 00:01:00,
2013-03-08 18:24:00,34.8,26.7,30.18,ENE,68,4.0,5.0,72,0.00,,,0.40,Wunderground v.1.13,2013-03-09 00:24:00,
2013-03-08 18:26:00,34.8,26.7,30.18,East,90,5.0,6.0,72,0.00,,,0.40,Wunderground v.1.13,2013-03-09 00:26:00,
2013-03-08 18:28:00,34.8,26.7,30.18,East,90,4.0,6.0,72,0.00,,,0.40,Wunderground v.1.13,2013-03-09 00:28:00,
2013-03-08 18:30:00,34.7,26.6,30.18,East,90,4.0,6.0,72,0.00,,,0.40,Wunderground v.1.13,2013-03-09 00:30:00,
2013-03-08 18:32:00,34.6,26.5,30.18,East,90,2.0,4.0,72,0.00,,,0.40,Wunderground v.1.13,2013-03-09 00:32:00,
2013-03-08 18:34:00,34.5,26.4,30.18,East,90,2.0,3.0,72,0.00,,,0.40,Wunderground v.1.13,2013-03-09 00:34:00,
2013-03-08 18:36:00,34.4,26.3,30.18,East,90,4.0,6.0,72,0.00,,,0.40,Wunderground v.1.13,2013-03-09 00:36:00,
2013-03-08 18:38:00,34.4,26.6,30.18,East,90,5.0,7.0,73,0.00,,,0.40,Wunderground v.1.13,2013-03-09 00:38:00,
2013-03-08 18:40:00,34.4,26.6,30.18,East,90,4.0,5.0,73,0.00,,,0.40,Wunderground v.1.13,2013-03-09 00:40:00,
2013-03-08 18:42:00,34.3,26.5,30.18,East,90,5.0,8.0,73,0.00,,,0.40,Wunderground v.1.13,2013-03-09 00:42:00,
2013-03-08 18:44:00,34.3,26.5,30.18,East,90,4.0,5.0,73,0.00,,,0.40,Wunderground v.1.13,2013-03-09 00:44:00,
2013-03-08 18:46:00,34.2,26.4,30.18,East,90,5.0,6.0,73,0.00,,,0.40,Wunderground v.1.13,2013-03-09 00:46:00,
2013-03-08 18:48:00,34.3,26.5,30.18,East,90,5.0,6.0,73,0.00,,,0.40,Wunderground v.1.13,2013-03-09 00:48:00,
2013-03-08 18:50:00,34.3,26.5,30.18,East,90,6.0,8.0,73,0.00,,,0.40,Wunderground v.1.13,2013-03-09 00:50:00,
2013-03-08 18:52:00,34.3,26.5,30.17,East,90,4.0,7.0,73,0.00,,,0.40,Wunderground v.1.13,2013-03-09 00:52:00,
2013-03-08 18:54:00,34.3,26.5,30.17,East,90,4.0,7.0,73,0.00,,,0.40,Wunderground v.1.13,2013-03-09 00:54:00,
2013-03-08 18:56:00,34.3,26.5,30.17,East,90,3.0,5.0,73,0.00,,,0.40,Wunderground v.1.13,2013-03-09 00:56:00,
2013-03-08 18:58:00,34.2,26.4,30.18,East,90,4.0,5.0,73,0.00,,,0.40,Wunderground v.1.13,2013-03-09 00:58:00,
2013-03-08 19:00:00,34.1,26.3,30.17,East,90,4.0,6.0,73,0.00,,,0.40,Wunderground v.1.13,2013-03-09 01:00:00,
2013-03-08 19:02:00,34.1,26.3,30.17,East,90,4.0,5.0,73,0.00,,,0.40,Wunderground v.1.13,2013-03-09 01:02:00,
2013-03-08 19:04:00,34.0,26.3,30.17,East,90,3.0,5.0,73,0.00,,,0.40,Wunderground v.1.13,2013-03-09 01:04:00,
2013-03-08 19:06:00,34.0,26.6,30.17,East,90,3.0,5.0,74,0.00,,,0.40,Wunderground v.1.13,2013-03-09 01:06:00,
2013-03-08 19:08:00,33.9,26.5,30.17,East,90,2.0,4.0,74,0.00,,,0.40,Wunderground v.1.13,2013-03-09 01:08:00,
2013-03-08 19:10:00,33.9,26.5,30.16,ENE,68,3.0,5.0,74,0.00,,,0.40,Wunderground v.1.13,2013-03-09 01:10:00,
2013-03-08 19:12:00,33.9,26.5,30.16,ENE,68,3.0,5.0,74,0.00,,,0.40,Wunderground v.1.13,2013-03-09 01:12:00,
2013-03-08 19:14:00,33.8,26.4,30.16,East,90,4.0,7.0,74,0.00,,,0.40,Wunderground v.1.13,2013-03-09 01:14:00,
2013-03-08 19:16:00,33.7,26.3,30.16,East,90,3.0,5.0,74,0.00,,,0.40,Wunderground v.1.13,2013-03-09 01:16:00,
2013-03-08 19:18:00,33.6,26.2,30.16,East,90,3.0,5.0,74,0.00,,,0.40,Wunderground v.1.13,2013-03-09 01:18:00,
2013-03-08 19:20:00,33.6,26.2,30.16,East,90,1.0,2.0,74,0.00,,,0.40,Wunderground v.1.13,2013-03-09 01:20:00,
2013-03-08 19:22:00,33.5,26.1,30.16,East,90,3.0,4.0,74,0.00,,,0.40,Wunderground v.1.13,2013-03-09 01:22:00,
2013-03-08 19:29:00,33.3,26.2,30.16,East,91,3.0,3.0,75,0.00,,,0.04,Wunderground v.1.13,2013-03-09 01:29:00,
2013-03-08 19:31:00,33.2,26.1,30.16,East,91,3.0,3.0,75,0.00,,,0.04,Wunderground v.1.13,2013-03-09 01:31:00,
2013-03-08 19:34:00,33.4,26.0,30.16,East,90,2.0,3.0,74,0.00,,,0.40,Wunderground v.1.13,2013-03-09 01:34:00,
2013-03-08 19:37:00,33.2,26.1,30.16,East,91,2.0,3.0,75,0.00,,,0.04,Wunderground v.1.13,2013-03-09 01:37:00,
2013-03-08 19:39:00,33.2,26.1,30.16,East,91,2.0,2.0,75,0.00,,,0.04,Wunderground v.1.13,2013-03-09 01:39:00,
2013-03-08 19:42:00,33.1,26.0,30.16,East,91,2.0,4.0,75,0.00,,,0.04,Wunderground v.1.13,2013-03-09 01:42:00,
2013-03-08 19:45:00,33.0,25.9,30.16,East,91,2.0,4.0,75,0.00,,,0.04,Wunderground v.1.13,2013-03-09 01:45:00,
2013-03-08 19:48:00,32.9,26.2,30.15,East,91,2.0,4.0,76,0.00,,,0.04,Wunderground v.1.13,2013-03-09 01:48:00,
2013-03-08 19:52:00,32.8,26.1,30.15,East,90,3.0,5.0,76,0.00,,,0.04,Wunderground v.1.13,2013-03-09 01:52:00,
2013-03-08 19:57:00,32.6,25.9,30.15,East,90,3.0,3.0,76,0.00,,,0.04,Wunderground v.1.13,2013-03-09 01:57:00,
2013-03-08 19:58:00,32.6,25.9,30.15,East,90,3.0,4.0,76,0.00,,,0.04,Wunderground v.1.13,2013-03-09 01:58:00,
2013-03-08 20:03:00,32.5,25.8,30.14,East,90,3.0,5.0,76,0.00,,,0.04,Wunderground v.1.13,2013-03-09 02:03:00,
2013-03-08 20:09:00,32.3,25.9,30.14,ENE,64,3.0,5.0,77,0.00,,,0.04,Wunderground v.1.13,2013-03-09 02:09:00,
2013-03-08 20:11:00,32.3,25.9,30.14,ENE,64,3.0,4.0,77,0.00,,,0.04,Wunderground v.1.13,2013-03-09 02:11:00,
2013-03-08 20:15:00,32.2,25.8,30.14,ENE,65,4.0,4.0,77,0.00,,,0.04,Wunderground v.1.13,2013-03-09 02:15:00,
2013-03-08 20:18:00,32.1,25.7,30.14,ENE,63,4.0,4.0,77,0.00,,,0.04,Wunderground v.1.13,2013-03-09 02:18:00,
2013-03-08 20:19:00,32.0,25.6,30.14,ENE,69,4.0,4.0,77,0.00,,,0.04,Wunderground v.1.13,2013-03-09 02:19:00,
2013-03-08 20:24:00,32.0,25.9,30.14,ENE,69,3.0,4.0,78,0.00,,,0.04,Wunderground v.1.13,2013-03-09 02:24:00,
2013-03-08 20:27:00,32.0,25.9,30.13,ENE,69,3.0,5.0,78,0.00,,,0.04,Wunderground v.1.13,2013-03-09 02:27:00,
2013-03-08 20:30:00,32.1,26.0,30.13,ENE,75,3.0,4.0,78,0.00,,,0.04,Wunderground v.1.13,2013-03-09 02:30:00,
2013-03-08 20:31:00,32.1,26.0,30.13,ENE,76,3.0,4.0,78,0.00,,,0.04,Wunderground v.1.13,2013-03-09 02:31:00,
2013-03-08 20:32:00,32.1,26.0,30.13,ENE,78,3.0,4.0,78,0.00,,,0.04,Wunderground v.1.13,2013-03-09 02:32:00,
2013-03-08 20:35:00,32.1,26.0,30.13,ENE,75,3.0,4.0,78,0.00,,,0.04,Wunderground v.1.13,2013-03-09 02:35:00,
2013-03-08 20:37:00,32.1,26.0,30.13,East,86,3.0,5.0,78,0.00,,,0.04,Wunderground v.1.13,2013-03-09 02:37:00,
2013-03-08 20:39:00,32.1,26.0,30.13,ENE,76,3.0,5.0,78,0.00,,,0.04,Wunderground v.1.13,2013-03-09 02:39:00,
2013-03-08 20:40:00,32.1,26.0,30.13,ENE,76,3.0,3.0,78,0.00,,,0.04,Wunderground v.1.13,2013-03-09 02:40:00,
2013-03-08 20:43:00,32.1,26.0,30.13,ENE,77,4.0,4.0,78,0.00,,,0.04,Wunderground v.1.13,2013-03-09 02:43:00,
2013-03-08 20:47:00,32.1,26.0,30.12,East,83,3.0,5.0,78,0.00,,,0.04,Wunderground v.1.13,2013-03-09 02:47:00,
2013-03-08 20:50:00,32.2,26.1,30.12,East,82,4.0,4.0,78,0.00,,,0.04,Wunderground v.1.13,2013-03-09 02:50:00,
2013-03-08 20:52:00,32.2,26.1,30.12,ENE,71,4.0,6.0,78,0.00,,,0.04,Wunderground v.1.13,2013-03-09 02:52:00,
2013-03-08 20:55:00,32.2,26.1,30.13,ENE,74,4.0,4.0,78,0.00,,,0.04,Wunderground v.1.13,2013-03-09 02:55:00,
2013-03-08 20:58:00,32.2,26.1,30.13,ENE,63,4.0,4.0,78,0.00,,,0.04,Wunderground v.1.13,2013-03-09 02:58:00,
2013-03-08 21:02:00,32.1,26.0,30.12,ENE,63,3.0,4.0,78,0.00,,,0.04,Wunderground v.1.13,2013-03-09 03:02:00,
2013-03-08 21:04:00,32.0,25.9,30.12,ENE,63,3.0,4.0,78,0.00,,,0.04,Wunderground v.1.13,2013-03-09 03:04:00,
2013-03-08 21:07:00,32.0,25.9,30.12,ENE,64,3.0,4.0,78,0.00,,,0.04,Wunderground v.1.13,2013-03-09 03:07:00,
2013-03-08 21:11:00,31.9,25.8,30.11,ENE,64,3.0,3.0,78,0.00,,,0.04,Wunderground v.1.13,2013-03-09 03:11:00,
2013-03-08 21:14:00,31.8,26.0,30.12,ENE,66,3.0,5.0,79,0.00,,,0.04,Wunderground v.1.13,2013-03-09 03:14:00,
2013-03-08 21:17:00,31.8,26.0,30.12,ENE,66,4.0,4.0,79,0.00,,,0.04,Wunderground v.1.13,2013-03-09 03:17:00,
2013-03-08 21:20:00,31.9,26.1,30.12,ENE,66,3.0,3.0,79,0.00,,,0.04,Wunderground v.1.13,2013-03-09 03:20:00,
2013-03-08 21:21:00,31.9,26.1,30.12,ENE,67,4.0,5.0,79,0.00,,,0.04,Wunderground v.1.13,2013-03-09 03:21:00,
2013-03-08 21:23:00,31.9,26.1,30.12,ENE,67,4.0,5.0,79,0.00,,,0.04,Wunderground v.1.13,2013-03-09 03:23:00,
2013-03-08 21:27:00,31.8,26.0,30.12,ENE,67,3.0,4.0,79,0.00,,,0.04,Wunderground v.1.13,2013-03-09 03:27:00,
2013-03-08 21:29:00,31.8,26.0,30.12,ENE,67,3.0,6.0,79,0.00,,,0.04,Wunderground v.1.13,2013-03-09 03:29:00,
2013-03-08 21:30:00,31.8,26.0,30.12,ENE,67,3.0,4.0,79,0.00,,,0.04,Wunderground v.1.13,2013-03-09 03:30:00,
2013-03-08 21:32:00,31.8,26.0,30.12,ENE,67,3.0,6.0,79,0.00,,,0.04,Wunderground v.1.13,2013-03-09 03:32:00,
2013-03-08 21:33:00,31.7,25.9,30.11,ENE,67,4.0,6.0,79,0.00,,,0.04,Wunderground v.1.13,2013-03-09 03:33:00,
2013-03-08 21:36:00,31.7,25.9,30.12,ENE,68,4.0,4.0,79,0.00,,,0.04,Wunderground v.1.13,2013-03-09 03:36:00,
2013-03-08 21:37:00,31.6,25.8,30.12,ENE,67,4.0,4.0,79,0.00,,,0.04,Wunderground v.1.13,2013-03-09 03:37:00,
2013-03-08 21:40:00,31.5,26.0,30.11,ENE,72,5.0,5.0,80,0.00,,,0.04,Wunderground v.1.13,2013-03-09 03:40:00,
2013-03-08 21:44:00,31.5,26.0,30.11,ENE,71,4.0,5.0,80,0.00,,,0.04,Wunderground v.1.13,2013-03-09 03:44:00,
2013-03-08 21:45:00,31.5,26.0,30.11,ENE,63,4.0,5.0,80,0.00,,,0.04,Wunderground v.1.13,2013-03-09 03:45:00,
2013-03-08 21:47:00,31.6,26.1,30.11,ENE,67,4.0,5.0,80,0.00,,,0.04,Wunderground v.1.13,2013-03-09 03:47:00,
2013-03-08 21:51:00,31.6,26.1,30.11,East,80,4.0,5.0,80,0.00,,,0.04,Wunderground v.1.13,2013-03-09 03:51:00,
2013-03-08 21:53:00,31.6,26.1,30.11,ENE,61,4.0,7.0,80,0.00,,,0.04,Wunderground v.1.13,2013-03-09 03:53:00,
2013-03-08 21:56:00,31.6,26.1,30.11,ENE,68,5.0,5.0,80,0.00,,,0.04,Wunderground v.1.13,2013-03-09 03:56:00,
2013-03-08 21:57:00,31.5,26.0,30.11,ENE,69,4.0,5.0,80,0.00,,,0.04,Wunderground v.1.13,2013-03-09 03:57:00,
2013-03-08 21:58:00,31.5,26.0,30.11,ENE,69,4.0,5.0,80,0.00,,,0.04,Wunderground v.1.13,2013-03-09 03:58:00,
2013-03-08 22:03:00,31.4,25.9,30.11,ENE,69,4.0,5.0,80,0.00,,,0.04,Wunderground v.1.13,2013-03-09 04:03:00,
2013-03-08 22:05:00,31.4,25.9,30.11,ENE,68,4.0,5.0,80,0.00,,,0.04,Wunderground v.1.13,2013-03-09 04:05:00,
2013-03-08 22:07:00,31.4,26.2,30.10,ENE,68,4.0,5.0,81,0.00,,,0.04,Wunderground v.1.13,2013-03-09 04:07:00,
2013-03-08 22:09:00,31.3,25.8,30.10,ENE,67,4.0,5.0,80,0.00,,,0.04,Wunderground v.1.13,2013-03-09 04:09:00,
2013-03-08 22:13:00,31.3,25.8,30.10,ENE,67,4.0,6.0,80,0.00,,,0.04,Wunderground v.1.13,2013-03-09 04:13:00,
2013-03-08 22:15:00,31.2,25.7,30.10,ENE,68,4.0,4.0,80,0.00,,,0.04,Wunderground v.1.13,2013-03-09 04:15:00,
2013-03-08 22:20:00,31.0,25.9,30.10,ENE,67,4.0,4.0,81,0.00,,,0.04,Wunderground v.1.13,2013-03-09 04:20:00,
2013-03-08 22:23:00,31.0,25.9,30.10,ENE,67,4.0,4.0,81,0.00,,,0.04,Wunderground v.1.13,2013-03-09 04:23:00,
2013-03-08 22:24:00,31.0,25.9,30.10,ENE,67,4.0,4.0,81,0.00,,,0.04,Wunderground v.1.13,2013-03-09 04:24:00,
2013-03-08 22:27:00,31.0,25.9,30.10,ENE,71,4.0,5.0,81,0.00,,,0.04,Wunderground v.1.13,2013-03-09 04:27:00,
2013-03-08 22:29:00,31.0,25.9,30.10,ENE,71,3.0,5.0,81,0.00,,,0.04,Wunderground v.1.13,2013-03-09 04:29:00,
2013-03-08 22:30:00,31.0,25.9,30.09,ENE,71,3.0,3.0,81,0.00,,,0.04,Wunderground v.1.13,2013-03-09 04:30:00,
2013-03-08 22:34:00,30.9,25.8,30.09,ENE,71,3.0,5.0,81,0.00,,,0.04,Wunderground v.1.13,2013-03-09 04:34:00,
2013-03-08 22:36:00,30.8,25.7,30.09,ENE,71,3.0,3.0,81,0.00,,,0.04,Wunderground v.1.13,2013-03-09 04:36:00,
2013-03-08 22:37:00,30.7,25.6,30.09,ENE,71,3.0,4.0,81,0.00,,,0.04,Wunderground v.1.13,2013-03-09 04:37:00,
2013-03-08 22:39:00,30.7,25.6,30.10,ENE,71,3.0,4.0,81,0.00,,,0.04,Wunderground v.1.13,2013-03-09 04:39:00,
2013-03-08 22:40:00,30.7,25.6,30.10,ENE,71,3.0,3.0,81,0.00,,,0.04,Wunderground v.1.13,2013-03-09 04:40:00,
2013-03-08 22:44:00,30.6,25.8,30.09,ENE,71,3.0,4.0,82,0.00,,,0.04,Wunderground v.1.13,2013-03-09 04:44:00,
2013-03-08 22:45:00,30.6,25.8,30.09,ENE,71,3.0,4.0,82,0.00,,,0.04,Wunderground v.1.13,2013-03-09 04:45:00,
2013-03-08 22:48:00,30.6,25.8,30.09,ENE,71,3.0,4.0,82,0.00,,,0.04,Wunderground v.1.13,2013-03-09 04:48:00,
2013-03-08 22:49:00,30.6,25.8,30.09,ENE,71,3.0,4.0,82,0.00,,,0.04,Wunderground v.1.13,2013-03-09 04:49:00,
2013-03-08 22:54:00,30.6,25.8,30.09,ENE,71,3.0,3.0,82,0.00,,,0.04,Wunderground v.1.13,2013-03-09 04:54:00,
2013-03-08 22:55:00,30.5,25.7,30.09,ENE,71,3.0,4.0,82,0.00,,,0.04,Wunderground v.1.13,2013-03-09 04:55:00,
2013-03-08 22:56:00,30.5,25.7,30.09,ENE,71,3.0,4.0,82,0.00,,,0.04,Wunderground v.1.13,2013-03-09 04:56:00,
2013-03-08 22:59:00,30.5,25.7,30.08,ENE,71,3.0,4.0,82,0.00,,,0.04,Wunderground v.1.13,2013-03-09 04:59:00,
2013-03-08 23:00:00,30.4,25.6,30.08,ENE,71,3.0,3.0,82,0.00,,,0.04,Wunderground v.1.13,2013-03-09 05:00:00,
2013-03-08 23:01:00,30.4,25.6,30.08,ENE,71,3.0,4.0,82,0.00,,,0.04,Wunderground v.1.13,2013-03-09 05:01:00,
2013-03-08 23:06:00,30.0,25.2,30.08,ENE,71,4.0,4.0,82,0.00,,,0.04,Wunderground v.1.13,2013-03-09 05:06:00,
2013-03-08 23:08:00,29.9,25.1,30.07,ENE,71,3.0,4.0,82,0.00,,,0.04,Wunderground v.1.13,2013-03-09 05:08:00,
2013-03-08 23:12:00,29.8,25.3,30.08,ENE,71,3.0,3.0,83,0.00,,,0.04,Wunderground v.1.13,2013-03-09 05:12:00,
2013-03-08 23:14:00,29.8,25.3,30.07,ENE,71,3.0,3.0,83,0.00,,,0.04,Wunderground v.1.13,2013-03-09 05:14:00,
2013-03-08 23:17:00,29.9,25.4,30.07,ENE,75,2.0,3.0,83,0.00,,,0.04,Wunderground v.1.13,2013-03-09 05:17:00,
2013-03-08 23:18:00,29.8,25.3,30.07,ENE,75,2.0,4.0,83,0.00,,,0.04,Wunderground v.1.13,2013-03-09 05:18:00,
2013-03-08 23:20:00,29.9,25.4,30.07,ENE,75,2.0,2.0,83,0.00,,,0.04,Wunderground v.1.13,2013-03-09 05:20:00,
2013-03-08 23:25:00,29.7,25.2,30.07,ENE,74,3.0,5.0,83,0.00,,,0.04,Wunderground v.1.13,2013-03-09 05:25:00,
2013-03-08 23:26:00,29.7,25.2,30.06,ENE,72,3.0,5.0,83,0.00,,,0.04,Wunderground v.1.13,2013-03-09 05:26:00,
2013-03-08 23:28:00,29.6,25.1,30.06,ENE,74,4.0,5.0,83,0.00,,,0.04,Wunderground v.1.13,2013-03-09 05:28:00,
2013-03-08 23:31:00,29.6,25.4,30.06,East,81,4.0,5.0,84,0.00,,,0.04,Wunderground v.1.13,2013-03-09 05:31:00,
2013-03-08 23:32:00,29.6,25.4,30.06,East,81,4.0,5.0,84,0.00,,,0.04,Wunderground v.1.13,2013-03-09 05:32:00,
2013-03-08 23:35:00,29.5,25.3,30.06,East,82,4.0,4.0,84,0.00,,,0.04,Wunderground v.1.13,2013-03-09 05:35:00,
2013-03-08 23:37:00,29.5,25.3,30.06,East,84,4.0,4.0,84,0.00,,,0.04,Wunderground v.1.13,2013-03-09 05:37:00,
2013-03-08 23:38:00,29.5,25.3,30.06,East,82,4.0,4.0,84,0.00,,,0.04,Wunderground v.1.13,2013-03-09 05:38:00,
2013-03-08 23:41:00,29.7,25.5,30.06,East,82,4.0,4.0,84,0.00,,,0.04,Wunderground v.1.13,2013-03-09 05:41:00,
2013-03-08 23:44:00,30.1,25.8,30.06,East,87,4.0,5.0,84,0.00,,,0.04,Wunderground v.1.13,2013-03-09 05:44:00,
2013-03-08 23:46:00,30.1,25.6,30.06,East,87,4.0,4.0,83,0.00,,,0.04,Wunderground v.1.13,2013-03-09 05:46:00,
2013-03-08 23:47:00,30.1,25.6,30.06,East,79,4.0,4.0,83,0.00,,,0.04,Wunderground v.1.13,2013-03-09 05:47:00,
2013-03-08 23:50:00,30.2,25.7,30.06,East,96,3.0,3.0,83,0.00,,,0.04,Wunderground v.1.13,2013-03-09 05:50:00,
2013-03-08 23:53:00,30.4,25.9,30.06,East,86,3.0,3.0,83,0.00,,,0.04,Wunderground v.1.13,2013-03-09 05:53:00,
2013-03-08 23:55:00,30.4,25.9,30.06,East,96,3.0,3.0,83,0.00,,,0.04,Wunderground v.1.13,2013-03-09 05:55:00,
2013-03-08 23:56:00,30.4,25.9,30.06,East,97,3.0,3.0,83,0.00,,,0.04,Wunderground v.1.13,2013-03-09 05:56:00,